AUA27 KMCO-LOWW

Flight info

Callsign AUA27
Flight time 9h 52m
Altitude 35000
Route MZULO3 LENDS COACH EAAGL HAAYY AZEZU KN57E LACKS JOBOC 4160N 4250N 4340N 4330N 4320N MUDOS ROXER NOLSA MARIO SINDO PIVUS DIBER NETUP STP RAPED PIGOS EKSID NOSTA LUKIM MALUG ARALD ABTAN
Aircraft A343/H-SDE2E3FGHIJ4J5M1RWXY/LB1D1

Departure

Time 2026-04-25 13:48
Airport Orlando International Airport (KMCO)

Arrival

Time 2026-04-25 23:41
Airport Vienna International Airport (LOWW)
Time Latitude Longitude Altitude Speed Heading
2026-04-25 13:09 28.43552 -81.30046 105 ft 0 kts 253°
2026-04-25 13:31 28.43560 -81.30015 105 ft 3 kts 253°
2026-04-25 13:31 28.43565 -81.29996 104 ft 3 kts 253°
2026-04-25 13:31 28.43570 -81.29976 106 ft 3 kts 253°
2026-04-25 13:31 28.43575 -81.29957 105 ft 2 kts 253°
2026-04-25 13:32 28.43583 -81.29939 104 ft 2 kts 229°
2026-04-25 13:32 28.43594 -81.29925 102 ft 2 kts 229°
2026-04-25 13:32 28.43605 -81.29910 103 ft 2 kts 229°
2026-04-25 13:32 28.43619 -81.29897 103 ft 2 kts 204°
2026-04-25 13:33 28.43634 -81.29889 102 ft 2 kts 204°
2026-04-25 13:33 28.43644 -81.29885 104 ft 0 kts 178°
2026-04-25 13:36 28.43642 -81.29884 103 ft 2 kts 178°
2026-04-25 13:36 28.43619 -81.29883 105 ft 3 kts 177°
2026-04-25 13:36 28.43595 -81.29881 104 ft 4 kts 173°
2026-04-25 13:36 28.43587 -81.29879 104 ft 1 kts 166°
2026-04-25 13:37 28.43581 -81.29876 106 ft 1 kts 161°
2026-04-25 13:37 28.43570 -81.29867 106 ft 2 kts 136°
2026-04-25 13:37 28.43560 -81.29844 108 ft 4 kts 110°
2026-04-25 13:37 28.43553 -81.29802 108 ft 7 kts 96°
2026-04-25 13:38 28.43553 -81.29742 107 ft 0 kts 89°
2026-04-25 13:38 28.43553 -81.29738 107 ft 0 kts 91°
2026-04-25 13:38 28.43552 -81.29736 107 ft 0 kts 91°
2026-04-25 13:39 28.43552 -81.29733 107 ft 1 kts 91°
2026-04-25 13:40 28.43552 -81.29729 107 ft 1 kts 91°
2026-04-25 13:40 28.43552 -81.29721 107 ft 1 kts 91°
2026-04-25 13:40 28.43552 -81.29714 107 ft 1 kts 91°
2026-04-25 13:40 28.43552 -81.29712 107 ft 0 kts 91°
2026-04-25 13:44 28.43552 -81.29678 107 ft 8 kts 90°
2026-04-25 13:44 28.43526 -81.29609 108 ft 11 kts 142°
2026-04-25 13:45 28.43476 -81.29589 109 ft 0 kts 173°
2026-04-25 13:45 28.43475 -81.29589 109 ft 0 kts 173°
2026-04-25 13:47 28.43413 -81.29586 110 ft 28 kts 178°
2026-04-25 13:48 28.43001 -81.29584 110 ft 89 kts 180°
2026-04-25 13:48 28.42192 -81.29575 105 ft 141 kts 179°
2026-04-25 13:48 28.41096 -81.29572 354 ft 166 kts 181°
2026-04-25 13:48 28.39907 -81.29577 883 ft 176 kts 178°
2026-04-25 13:49 28.38652 -81.29371 1382 ft 190 kts 165°
2026-04-25 13:49 28.37408 -81.28715 1648 ft 206 kts 151°
2026-04-25 13:49 28.36136 -81.27792 1846 ft 228 kts 148°
2026-04-25 13:49 28.34796 -81.26690 2161 ft 246 kts 140°
2026-04-25 13:50 28.33605 -81.25243 2720 ft 255 kts 127°
2026-04-25 13:50 28.32798 -81.23436 3306 ft 262 kts 107°
2026-04-25 13:50 28.32727 -81.21361 3826 ft 269 kts 78°
2026-04-25 13:50 28.33345 -81.19359 4529 ft 269 kts 69°
2026-04-25 13:51 28.34091 -81.17398 5189 ft 272 kts 68°
2026-04-25 13:51 28.34860 -81.15418 5818 ft 276 kts 68°
2026-04-25 13:51 28.35635 -81.13419 6465 ft 278 kts 68°
2026-04-25 13:51 28.36425 -81.11401 7063 ft 281 kts 64°
2026-04-25 13:52 28.37259 -81.09377 7635 ft 286 kts 63°
2026-04-25 13:52 28.38100 -81.07312 8227 ft 290 kts 64°
2026-04-25 13:52 28.38932 -81.05217 8844 ft 292 kts 64°
2026-04-25 13:52 28.39764 -81.03090 9429 ft 296 kts 64°
2026-04-25 13:53 28.40600 -81.00940 10000 ft 299 kts 64°
2026-04-25 13:53 28.41447 -80.98748 10355 ft 310 kts 64°
2026-04-25 13:53 28.42333 -80.96455 10598 ft 324 kts 64°
2026-04-25 13:53 28.43254 -80.94060 10840 ft 337 kts 64°
2026-04-25 13:54 28.44208 -80.91580 11075 ft 350 kts 64°
2026-04-25 13:54 28.45200 -80.88996 11327 ft 362 kts 65°
2026-04-25 13:54 28.46223 -80.86327 11562 ft 374 kts 65°
2026-04-25 13:54 28.47280 -80.83593 11891 ft 382 kts 63°
2026-04-25 13:55 28.48128 -80.80712 12293 ft 390 kts 80°
2026-04-25 13:55 28.48424 -80.77637 12783 ft 394 kts 83°
2026-04-25 13:55 28.48685 -80.74523 13245 ft 397 kts 83°
2026-04-25 13:55 28.48981 -80.71384 13719 ft 401 kts 82°
2026-04-25 13:56 28.49302 -80.68218 14143 ft 405 kts 82°
2026-04-25 13:56 28.49640 -80.65027 14541 ft 408 kts 81°
2026-04-25 13:56 28.49983 -80.61853 14951 ft 411 kts 81°
2026-04-25 13:56 28.50336 -80.58614 15402 ft 414 kts 81°
2026-04-25 13:57 28.50693 -80.55353 15840 ft 418 kts 81°
2026-04-25 13:57 28.50814 -80.54245 15991 ft 419 kts 81°
2026-04-25 13:57 28.51422 -80.48693 16679 ft 426 kts 81°
2026-04-25 13:57 28.51789 -80.45337 17127 ft 429 kts 81°
2026-04-25 13:58 28.52157 -80.41968 17550 ft 432 kts 81°
2026-04-25 13:58 28.52523 -80.38608 17971 ft 435 kts 81°
2026-04-25 13:58 28.52897 -80.35178 18376 ft 438 kts 81°
2026-04-25 13:58 28.53272 -80.31719 18748 ft 441 kts 81°
2026-04-25 13:59 28.53691 -80.28268 19141 ft 442 kts 73°
2026-04-25 13:59 28.54789 -80.25025 19560 ft 439 kts 62°
2026-04-25 13:59 28.56103 -80.21882 19960 ft 441 kts 62°
2026-04-25 13:59 28.57401 -80.18710 20347 ft 444 kts 63°
2026-04-25 14:00 28.58262 -80.16549 20630 ft 445 kts 63°
2026-04-25 14:00 28.59928 -80.12271 21166 ft 447 kts 64°
2026-04-25 14:00 28.61177 -80.09014 21580 ft 449 kts 64°
2026-04-25 14:00 28.62421 -80.05748 21957 ft 451 kts 64°
2026-04-25 14:01 28.63667 -80.02463 22335 ft 453 kts 64°
2026-04-25 14:01 28.64913 -79.99171 22716 ft 455 kts 64°
2026-04-25 14:01 28.66167 -79.95848 23074 ft 457 kts 64°
2026-04-25 14:01 28.67424 -79.92515 23448 ft 459 kts 65°
2026-04-25 14:02 28.68682 -79.89175 23743 ft 461 kts 65°
2026-04-25 14:02 28.69521 -79.86945 23940 ft 462 kts 65°
2026-04-25 14:02 28.71214 -79.82441 24332 ft 464 kts 65°
2026-04-25 14:02 28.71645 -79.81293 24435 ft 464 kts 65°
2026-04-25 14:03 28.73330 -79.76803 24802 ft 467 kts 65°
2026-04-25 14:03 28.74609 -79.73393 25078 ft 469 kts 65°
2026-04-25 14:03 28.75890 -79.69973 25365 ft 470 kts 65°
2026-04-25 14:03 28.77173 -79.66542 25646 ft 471 kts 65°
2026-04-25 14:04 28.78460 -79.63101 25917 ft 472 kts 65°
2026-04-25 14:04 28.79749 -79.59650 26184 ft 474 kts 65°
2026-04-25 14:04 28.81041 -79.56178 26445 ft 475 kts 64°
2026-04-25 14:04 28.82760 -79.52979 26684 ft 473 kts 51°
2026-04-25 14:05 28.84742 -79.49977 26954 ft 474 kts 51°
2026-04-25 14:05 28.86720 -79.46963 27232 ft 475 kts 52°
2026-04-25 14:05 28.88680 -79.43923 27483 ft 477 kts 52°
2026-04-25 14:05 28.90633 -79.40858 27687 ft 479 kts 52°
2026-04-25 14:06 28.92587 -79.37769 27887 ft 481 kts 52°
2026-04-25 14:06 28.94542 -79.34664 28123 ft 482 kts 52°
2026-04-25 14:06 28.96498 -79.31549 28345 ft 483 kts 53°
2026-04-25 14:06 28.98457 -79.28423 28587 ft 485 kts 53°
2026-04-25 14:07 29.00420 -79.25287 28793 ft 486 kts 53°
2026-04-25 14:07 29.02387 -79.22141 29116 ft 485 kts 53°
2026-04-25 14:07 29.04317 -79.19050 29445 ft 484 kts 53°
2026-04-25 14:07 29.06268 -79.15924 29764 ft 482 kts 53°
2026-04-25 14:08 29.08214 -79.12804 30066 ft 481 kts 53°
2026-04-25 14:08 29.10156 -79.09687 30309 ft 481 kts 52°
2026-04-25 14:08 29.12091 -79.06580 30548 ft 480 kts 52°
2026-04-25 14:08 29.14029 -79.03465 30734 ft 481 kts 52°
2026-04-25 14:09 29.15972 -79.00340 30906 ft 482 kts 53°
2026-04-25 14:09 29.17914 -78.97216 31130 ft 481 kts 53°
2026-04-25 14:09 29.19857 -78.94086 31323 ft 481 kts 53°
2026-04-25 14:09 29.21137 -78.92022 31477 ft 481 kts 53°
2026-04-25 14:10 29.23729 -78.87840 31741 ft 481 kts 53°
2026-04-25 14:10 29.25663 -78.84718 31943 ft 480 kts 53°
2026-04-25 14:10 29.27597 -78.81595 32134 ft 480 kts 53°
2026-04-25 14:10 29.29528 -78.78473 32326 ft 480 kts 53°
2026-04-25 14:11 29.31458 -78.75350 32508 ft 480 kts 53°
2026-04-25 14:11 29.33430 -78.72266 32683 ft 479 kts 49°
2026-04-25 14:11 29.35692 -78.69477 32873 ft 477 kts 40°
2026-04-25 14:11 29.38302 -78.67149 33013 ft 475 kts 31°
2026-04-25 14:12 29.41200 -78.65345 33136 ft 474 kts 21°
2026-04-25 14:12 29.44270 -78.63981 33303 ft 473 kts 18°
2026-04-25 14:12 29.47375 -78.62735 33463 ft 472 kts 17°
2026-04-25 14:12 29.50484 -78.61541 33638 ft 472 kts 17°
2026-04-25 14:13 29.53610 -78.60358 33776 ft 472 kts 17°
2026-04-25 14:13 29.56726 -78.59177 33939 ft 472 kts 17°
2026-04-25 14:13 29.59839 -78.57988 34081 ft 472 kts 17°
2026-04-25 14:13 29.62951 -78.56789 34239 ft 471 kts 17°
2026-04-25 14:14 29.66013 -78.55603 34388 ft 470 kts 17°
2026-04-25 14:14 29.69117 -78.54395 34536 ft 469 kts 17°
2026-04-25 14:14 29.72201 -78.53193 34701 ft 468 kts 17°
2026-04-25 14:14 29.75282 -78.51991 34848 ft 467 kts 17°
2026-04-25 14:15 29.78364 -78.50787 34986 ft 467 kts 17°
2026-04-25 14:15 29.84515 -78.48384 34998 ft 465 kts 17°
2026-04-25 14:16 29.90629 -78.45993 34991 ft 464 kts 17°
2026-04-25 14:16 29.96774 -78.43588 34993 ft 469 kts 17°
2026-04-25 14:17 30.02964 -78.41162 34994 ft 470 kts 17°
2026-04-25 14:17 30.09150 -78.38733 34991 ft 469 kts 17°
2026-04-25 14:18 30.15331 -78.36302 34994 ft 469 kts 17°
2026-04-25 14:18 30.21513 -78.33869 34995 ft 469 kts 17°
2026-04-25 14:19 30.27695 -78.31433 34992 ft 469 kts 17°
2026-04-25 14:19 30.33869 -78.28996 34990 ft 469 kts 17°
2026-04-25 14:20 30.40050 -78.26553 34989 ft 469 kts 17°
2026-04-25 14:20 30.46229 -78.24108 34992 ft 469 kts 17°
2026-04-25 14:21 30.52408 -78.21660 34988 ft 469 kts 17°
2026-04-25 14:21 30.58586 -78.19208 34986 ft 469 kts 17°
2026-04-25 14:22 30.64764 -78.16754 34986 ft 469 kts 17°
2026-04-25 14:22 30.70942 -78.14296 34997 ft 469 kts 17°
2026-04-25 14:23 30.77077 -78.11851 34984 ft 468 kts 18°
2026-04-25 14:23 30.83232 -78.09396 34990 ft 467 kts 18°
2026-04-25 14:24 30.89386 -78.06938 34979 ft 467 kts 18°
2026-04-25 14:24 30.95542 -78.04475 34986 ft 468 kts 18°
2026-04-25 14:25 31.01703 -78.02008 34988 ft 467 kts 18°
2026-04-25 14:25 31.07815 -77.99416 34980 ft 468 kts 24°
2026-04-25 14:26 31.13512 -77.95706 34991 ft 469 kts 30°
2026-04-25 14:26 31.19049 -77.91738 34981 ft 472 kts 31°
2026-04-25 14:27 31.24634 -77.87673 34992 ft 473 kts 31°
2026-04-25 14:27 31.30215 -77.83618 34971 ft 472 kts 31°
2026-04-25 14:28 31.35802 -77.79569 34976 ft 473 kts 31°
2026-04-25 14:28 31.41429 -77.75491 34972 ft 478 kts 31°
2026-04-25 14:29 31.47087 -77.71385 34973 ft 478 kts 31°
2026-04-25 14:29 31.52735 -77.67279 34985 ft 477 kts 31°
2026-04-25 14:30 31.58371 -77.63174 34975 ft 476 kts 31°
2026-04-25 14:30 31.66805 -77.57023 34971 ft 477 kts 31°
2026-04-25 14:31 31.72451 -77.52898 34988 ft 478 kts 31°
2026-04-25 14:31 31.78105 -77.48760 34975 ft 480 kts 31°
2026-04-25 14:32 31.83789 -77.44596 34979 ft 482 kts 31°
2026-04-25 14:32 31.89483 -77.40417 34978 ft 482 kts 31°
2026-04-25 14:33 31.95174 -77.36233 34972 ft 482 kts 31°
2026-04-25 14:33 32.00862 -77.32045 34968 ft 481 kts 31°
2026-04-25 14:34 32.06529 -77.27867 34979 ft 480 kts 31°
2026-04-25 14:34 32.12187 -77.23691 34965 ft 479 kts 32°
2026-04-25 14:35 32.17803 -77.19539 34990 ft 481 kts 31°
2026-04-25 14:35 32.23485 -77.15339 34968 ft 482 kts 31°
2026-04-25 14:36 32.29193 -77.11198 34984 ft 481 kts 31°
2026-04-25 14:36 32.34905 -77.07076 34971 ft 480 kts 31°
2026-04-25 14:37 32.40609 -77.02943 34980 ft 480 kts 31°
2026-04-25 14:37 32.46299 -76.98806 34967 ft 480 kts 31°
2026-04-25 14:38 32.51989 -76.94661 34964 ft 480 kts 31°
2026-04-25 14:38 32.57672 -76.90513 34966 ft 479 kts 31°
2026-04-25 14:39 32.63351 -76.86363 34970 ft 479 kts 31°
2026-04-25 14:39 32.69040 -76.82200 34963 ft 481 kts 31°
2026-04-25 14:40 32.74741 -76.78022 34967 ft 482 kts 31°
2026-04-25 14:40 32.80444 -76.73836 34965 ft 482 kts 31°
2026-04-25 14:41 32.86145 -76.69644 34967 ft 482 kts 31°
2026-04-25 14:41 32.91843 -76.65448 34965 ft 481 kts 31°
2026-04-25 14:42 32.95614 -76.62669 34964 ft 481 kts 31°
2026-04-25 14:42 33.03229 -76.57046 34964 ft 480 kts 31°
2026-04-25 14:43 33.08870 -76.52873 34961 ft 480 kts 31°
2026-04-25 14:43 33.14581 -76.48643 34963 ft 481 kts 31°
2026-04-25 14:44 33.20237 -76.44447 34959 ft 482 kts 31°
2026-04-25 14:44 33.25932 -76.40214 34957 ft 481 kts 31°
2026-04-25 14:45 33.31615 -76.35984 34962 ft 481 kts 31°
2026-04-25 14:45 33.37296 -76.31749 34960 ft 481 kts 32°
2026-04-25 14:46 33.42973 -76.27511 34962 ft 481 kts 32°
2026-04-25 14:46 33.48650 -76.23266 34958 ft 480 kts 31°
2026-04-25 14:47 33.52427 -76.20438 34958 ft 478 kts 31°
2026-04-25 14:47 33.58980 -76.15524 34954 ft 478 kts 32°
2026-04-25 14:48 33.64628 -76.11282 34955 ft 479 kts 31°
2026-04-25 14:48 33.70274 -76.07036 34951 ft 479 kts 31°
2026-04-25 14:49 33.75922 -76.02780 34950 ft 478 kts 31°
2026-04-25 14:49 33.81552 -75.98531 34948 ft 478 kts 31°
2026-04-25 14:50 33.87185 -75.94274 34950 ft 478 kts 31°
2026-04-25 14:50 33.92816 -75.90010 34949 ft 478 kts 31°
2026-04-25 14:51 33.98437 -75.85748 34946 ft 477 kts 31°
2026-04-25 14:51 34.04048 -75.81488 34944 ft 477 kts 31°
2026-04-25 14:52 34.09663 -75.77217 34945 ft 477 kts 31°
2026-04-25 14:52 34.14329 -75.73664 34940 ft 478 kts 31°
2026-04-25 14:53 34.20860 -75.68678 34935 ft 478 kts 30°
2026-04-25 14:53 34.26483 -75.64378 34936 ft 478 kts 31°
2026-04-25 14:54 34.32096 -75.60084 34938 ft 478 kts 30°
2026-04-25 14:54 34.37715 -75.55775 34938 ft 478 kts 31°
2026-04-25 14:55 34.43336 -75.51458 34933 ft 478 kts 31°
2026-04-25 14:55 34.48957 -75.47136 34931 ft 478 kts 30°
2026-04-25 14:56 34.54540 -75.42837 34930 ft 478 kts 31°
2026-04-25 14:56 34.60155 -75.38503 34929 ft 478 kts 30°
2026-04-25 14:57 34.65781 -75.34153 34930 ft 479 kts 30°
2026-04-25 14:57 34.71405 -75.29799 34925 ft 479 kts 30°
2026-04-25 14:58 34.77030 -75.25437 34922 ft 479 kts 30°
2026-04-25 14:58 34.82646 -75.21073 34925 ft 479 kts 30°
2026-04-25 14:59 34.88236 -75.16724 34922 ft 480 kts 30°
2026-04-25 14:59 34.93870 -75.12334 34920 ft 481 kts 30°
2026-04-25 15:00 34.99505 -75.07935 34922 ft 481 kts 30°
2026-04-25 15:00 35.05139 -75.03530 34925 ft 481 kts 30°
2026-04-25 15:01 35.10770 -74.99120 34922 ft 481 kts 30°
2026-04-25 15:01 35.16400 -74.94703 34919 ft 481 kts 30°
2026-04-25 15:02 35.22030 -74.90280 34919 ft 481 kts 30°
2026-04-25 15:02 35.27659 -74.85848 34919 ft 481 kts 30°
2026-04-25 15:03 35.33263 -74.81368 34917 ft 482 kts 32°
2026-04-25 15:03 35.38636 -74.76436 34913 ft 483 kts 35°
2026-04-25 15:04 35.43949 -74.71379 34917 ft 483 kts 35°
2026-04-25 15:04 35.49291 -74.66378 34913 ft 483 kts 34°
2026-04-25 15:05 35.54657 -74.61412 34918 ft 483 kts 34°
2026-04-25 15:06 35.62680 -74.54002 34914 ft 483 kts 34°
2026-04-25 15:06 35.68045 -74.49033 34915 ft 483 kts 34°
2026-04-25 15:07 35.73407 -74.44055 34926 ft 483 kts 33°
2026-04-25 15:07 35.78769 -74.39069 34913 ft 483 kts 33°
2026-04-25 15:08 35.84130 -74.34074 34918 ft 483 kts 33°
2026-04-25 15:08 35.89488 -74.29072 34917 ft 482 kts 33°
2026-04-25 15:09 35.94835 -74.24073 34923 ft 482 kts 33°
2026-04-25 15:09 36.02853 -74.16561 34916 ft 483 kts 33°
2026-04-25 15:10 36.08166 -74.11572 34919 ft 483 kts 33°
2026-04-25 15:11 36.16190 -74.04020 34939 ft 483 kts 33°
2026-04-25 15:11 36.21540 -73.98975 34925 ft 483 kts 33°
2026-04-25 15:12 36.29532 -73.91419 34930 ft 482 kts 33°
2026-04-25 15:12 36.33100 -73.88040 34935 ft 482 kts 33°
2026-04-25 15:13 36.42847 -73.78789 34946 ft 482 kts 33°
2026-04-25 15:14 36.48174 -73.73721 34942 ft 482 kts 33°
2026-04-25 15:14 36.53486 -73.68657 34950 ft 482 kts 33°
2026-04-25 15:15 36.58808 -73.63575 34971 ft 482 kts 32°
2026-04-25 15:15 36.64119 -73.58493 34958 ft 481 kts 32°
2026-04-25 15:16 36.69430 -73.53405 34957 ft 482 kts 32°
2026-04-25 15:16 36.77394 -73.45757 34969 ft 482 kts 32°
2026-04-25 15:17 36.85362 -73.38084 34967 ft 483 kts 32°
2026-04-25 15:18 36.90645 -73.32984 34975 ft 483 kts 32°
2026-04-25 15:18 36.98620 -73.25268 34986 ft 482 kts 32°
2026-04-25 15:19 37.02168 -73.21828 34987 ft 483 kts 32°
2026-04-25 15:19 37.09237 -73.14966 34989 ft 484 kts 32°
2026-04-25 15:20 37.14552 -73.09793 34987 ft 484 kts 32°
2026-04-25 15:20 37.19865 -73.04613 34999 ft 484 kts 32°
2026-04-25 15:21 37.25176 -72.99426 35006 ft 484 kts 32°
2026-04-25 15:21 37.30487 -72.94229 35005 ft 484 kts 32°
2026-04-25 15:22 37.35793 -72.89026 35008 ft 483 kts 32°
2026-04-25 15:22 37.41081 -72.83833 35020 ft 483 kts 32°
2026-04-25 15:23 37.46387 -72.78613 35013 ft 484 kts 32°
2026-04-25 15:23 37.51691 -72.73386 35021 ft 484 kts 32°
2026-04-25 15:24 37.56994 -72.68148 35026 ft 484 kts 32°
2026-04-25 15:24 37.60538 -72.64642 35042 ft 484 kts 31°
2026-04-25 15:25 37.67598 -72.57646 35034 ft 484 kts 31°
2026-04-25 15:25 37.72883 -72.52396 35042 ft 483 kts 31°
2026-04-25 15:26 37.78169 -72.47136 35041 ft 483 kts 31°
2026-04-25 15:26 37.83449 -72.41875 35047 ft 483 kts 31°
2026-04-25 15:27 37.88499 -72.36285 35062 ft 492 kts 39°
2026-04-25 15:28 37.95445 -72.26669 35048 ft 494 kts 41°
2026-04-25 15:28 38.00007 -72.20158 35066 ft 493 kts 41°
2026-04-25 15:29 38.04567 -72.13657 35067 ft 493 kts 41°
2026-04-25 15:29 38.09132 -72.07161 35073 ft 493 kts 41°
2026-04-25 15:30 38.13693 -72.00664 35074 ft 493 kts 41°
2026-04-25 15:30 38.18261 -71.94144 35097 ft 493 kts 41°
2026-04-25 15:31 38.22822 -71.87618 35076 ft 494 kts 41°
2026-04-25 15:31 38.27381 -71.81081 35082 ft 494 kts 41°
2026-04-25 15:32 38.31937 -71.74536 35088 ft 494 kts 41°
2026-04-25 15:32 38.36489 -71.67983 35095 ft 494 kts 41°
2026-04-25 15:33 38.43321 -71.58123 35088 ft 495 kts 41°
2026-04-25 15:33 38.47876 -71.51531 35095 ft 495 kts 41°
2026-04-25 15:34 38.51659 -71.46045 35094 ft 495 kts 41°
2026-04-25 15:34 38.55467 -71.40515 35097 ft 495 kts 40°
2026-04-25 15:35 38.63037 -71.29494 35101 ft 496 kts 41°
2026-04-25 15:36 38.69864 -71.19519 35102 ft 496 kts 41°
2026-04-25 15:36 38.74409 -71.12860 35106 ft 497 kts 40°
2026-04-25 15:37 38.78973 -71.06166 35108 ft 500 kts 41°
2026-04-25 15:37 38.83546 -70.99438 35113 ft 500 kts 41°
2026-04-25 15:38 38.88114 -70.92701 35113 ft 500 kts 41°
2026-04-25 15:38 38.92646 -70.86003 35120 ft 499 kts 40°
2026-04-25 15:39 38.97196 -70.79265 35120 ft 498 kts 41°
2026-04-25 15:39 39.01736 -70.72530 35123 ft 498 kts 41°
2026-04-25 15:40 39.05537 -70.66882 35122 ft 498 kts 41°
2026-04-25 15:40 39.10811 -70.59025 35129 ft 499 kts 41°
2026-04-25 15:41 39.15341 -70.52262 35141 ft 498 kts 41°
2026-04-25 15:41 39.19861 -70.45495 35131 ft 497 kts 41°
2026-04-25 15:42 39.24368 -70.38737 35135 ft 497 kts 40°
2026-04-25 15:42 39.28864 -70.31978 35127 ft 496 kts 41°
2026-04-25 15:43 39.33360 -70.25209 35132 ft 496 kts 41°
2026-04-25 15:43 39.37818 -70.18481 35146 ft 496 kts 40°
2026-04-25 15:44 39.42300 -70.11700 35133 ft 496 kts 40°
2026-04-25 15:44 39.46779 -70.04912 35132 ft 496 kts 40°
2026-04-25 15:45 39.50641 -69.97352 35133 ft 516 kts 58°
2026-04-25 15:45 39.52926 -69.90157 35133 ft 522 kts 61°
2026-04-25 15:46 39.55857 -69.79821 35156 ft 523 kts 62°
2026-04-25 15:46 39.58328 -69.70967 35133 ft 522 kts 62°
2026-04-25 15:47 39.60816 -69.62136 35133 ft 521 kts 61°
2026-04-25 15:47 39.63308 -69.53324 35132 ft 521 kts 61°
2026-04-25 15:48 39.65798 -69.44501 35131 ft 519 kts 61°
2026-04-25 15:48 39.68256 -69.35758 35132 ft 519 kts 61°
2026-04-25 15:49 39.70716 -69.26970 35133 ft 517 kts 61°
2026-04-25 15:49 39.73164 -69.18199 35151 ft 516 kts 60°
2026-04-25 15:50 39.75603 -69.09433 35124 ft 515 kts 60°
2026-04-25 15:50 39.78033 -69.00668 35130 ft 515 kts 60°
2026-04-25 15:51 39.80047 -68.93384 35122 ft 515 kts 60°
2026-04-25 15:51 39.82872 -68.83127 35136 ft 515 kts 60°
2026-04-25 15:52 39.85280 -68.74348 35120 ft 515 kts 60°
2026-04-25 15:52 39.87683 -68.65560 35122 ft 515 kts 60°
2026-04-25 15:53 39.90080 -68.56764 35123 ft 515 kts 60°
2026-04-25 15:53 39.92470 -68.47962 35123 ft 515 kts 60°
2026-04-25 15:54 39.94851 -68.39160 35112 ft 514 kts 60°
2026-04-25 15:54 39.97221 -68.30369 35108 ft 514 kts 60°
2026-04-25 15:55 39.99533 -68.21543 35121 ft 519 kts 65°
2026-04-25 15:55 40.00859 -68.12140 35116 ft 530 kts 72°
2026-04-25 15:56 40.01844 -68.02582 35110 ft 532 kts 73°
2026-04-25 15:56 40.02765 -67.93063 35113 ft 532 kts 73°
2026-04-25 15:57 40.03698 -67.83488 35119 ft 531 kts 73°
2026-04-25 15:57 40.04636 -67.73938 35111 ft 530 kts 72°
2026-04-25 15:58 40.05573 -67.64395 35106 ft 530 kts 73°
2026-04-25 15:58 40.06503 -67.54844 35105 ft 530 kts 73°
2026-04-25 15:59 40.07424 -67.45296 35102 ft 530 kts 72°
2026-04-25 15:59 40.08335 -67.35742 35099 ft 530 kts 72°
2026-04-25 16:00 40.08940 -67.29351 35104 ft 530 kts 72°
2026-04-25 16:00 40.10134 -67.16627 35109 ft 530 kts 72°
2026-04-25 16:01 40.11020 -67.07069 35096 ft 530 kts 72°
2026-04-25 16:01 40.11915 -66.97524 35076 ft 527 kts 70°
2026-04-25 16:02 40.13285 -66.88271 35119 ft 519 kts 66°
2026-04-25 16:02 40.14879 -66.79055 35084 ft 520 kts 66°
2026-04-25 16:03 40.16408 -66.69800 35078 ft 521 kts 67°
2026-04-25 16:03 40.17867 -66.60500 35096 ft 522 kts 68°
2026-04-25 16:04 40.19298 -66.51187 35072 ft 523 kts 68°
2026-04-25 16:04 40.20724 -66.41852 35072 ft 523 kts 68°
2026-04-25 16:05 40.22146 -66.32510 35067 ft 523 kts 68°
2026-04-25 16:06 40.24261 -66.18544 35063 ft 524 kts 68°
2026-04-25 16:06 40.25672 -66.09170 35059 ft 525 kts 69°
2026-04-25 16:07 40.27074 -65.99785 35061 ft 525 kts 69°
2026-04-25 16:07 40.28469 -65.90394 35069 ft 525 kts 69°
2026-04-25 16:08 40.29858 -65.80984 35051 ft 526 kts 69°
2026-04-25 16:08 40.31241 -65.71565 35045 ft 526 kts 69°
2026-04-25 16:09 40.32616 -65.62139 35045 ft 527 kts 69°
2026-04-25 16:09 40.33985 -65.52700 35041 ft 527 kts 70°
2026-04-25 16:10 40.35344 -65.43274 35037 ft 525 kts 70°
2026-04-25 16:10 40.36693 -65.33862 35031 ft 525 kts 70°
2026-04-25 16:11 40.38026 -65.24500 35034 ft 525 kts 71°
2026-04-25 16:11 40.39368 -65.15022 35023 ft 525 kts 71°
2026-04-25 16:12 40.40685 -65.05676 35017 ft 525 kts 71°
2026-04-25 16:12 40.42004 -64.96252 35033 ft 525 kts 72°
2026-04-25 16:13 40.43309 -64.86853 35016 ft 523 kts 72°
2026-04-25 16:13 40.44604 -64.77472 35015 ft 522 kts 72°
2026-04-25 16:14 40.45893 -64.68095 35013 ft 522 kts 72°
2026-04-25 16:14 40.47173 -64.58712 35007 ft 522 kts 72°
2026-04-25 16:15 40.48448 -64.49314 35007 ft 522 kts 72°
2026-04-25 16:15 40.49713 -64.39921 35012 ft 522 kts 73°
2026-04-25 16:16 40.50968 -64.30539 34999 ft 521 kts 73°
2026-04-25 16:16 40.52214 -64.21171 34989 ft 521 kts 73°
2026-04-25 16:17 40.53456 -64.11777 34994 ft 521 kts 73°
2026-04-25 16:17 40.54688 -64.02388 34984 ft 521 kts 74°
2026-04-25 16:18 40.55910 -63.93008 34976 ft 520 kts 74°
2026-04-25 16:18 40.57123 -63.83648 34971 ft 518 kts 74°
2026-04-25 16:19 40.58316 -63.74373 34971 ft 517 kts 74°
2026-04-25 16:19 40.59513 -63.65017 34958 ft 515 kts 74°
2026-04-25 16:20 40.61082 -63.52649 34954 ft 515 kts 75°
2026-04-25 16:21 40.63024 -63.37197 34939 ft 515 kts 75°
2026-04-25 16:21 40.63995 -63.29400 34939 ft 514 kts 75°
2026-04-25 16:22 40.65138 -63.20167 34933 ft 514 kts 75°
2026-04-25 16:22 40.66288 -63.10809 34935 ft 514 kts 75°
2026-04-25 16:23 40.67419 -63.01554 34928 ft 516 kts 75°
2026-04-25 16:23 40.68552 -62.92208 34922 ft 516 kts 75°
2026-04-25 16:24 40.69677 -62.82857 34926 ft 516 kts 76°
2026-04-25 16:24 40.70795 -62.73511 34911 ft 516 kts 76°
2026-04-25 16:25 40.71905 -62.64158 34901 ft 516 kts 76°
2026-04-25 16:25 40.73008 -62.54799 34903 ft 517 kts 76°
2026-04-25 16:26 40.74103 -62.45433 34899 ft 517 kts 76°
2026-04-25 16:26 40.75192 -62.36065 34895 ft 517 kts 76°
2026-04-25 16:27 40.76273 -62.26693 34894 ft 516 kts 77°
2026-04-25 16:27 40.77343 -62.17334 34889 ft 515 kts 77°
2026-04-25 16:28 40.78406 -62.07984 34888 ft 516 kts 77°
2026-04-25 16:28 40.79462 -61.98625 34887 ft 516 kts 77°
2026-04-25 16:29 40.80503 -61.89326 34886 ft 515 kts 77°
2026-04-25 16:29 40.81541 -61.79975 34883 ft 514 kts 77°
2026-04-25 16:30 40.82569 -61.70645 34877 ft 513 kts 78°
2026-04-25 16:30 40.83588 -61.61331 34879 ft 512 kts 78°
2026-04-25 16:31 40.84600 -61.52018 34870 ft 512 kts 78°
2026-04-25 16:31 40.85604 -61.42702 34866 ft 512 kts 78°
2026-04-25 16:32 40.86601 -61.33381 34873 ft 512 kts 78°
2026-04-25 16:32 40.87589 -61.24060 34872 ft 512 kts 78°
2026-04-25 16:33 40.88568 -61.14756 34860 ft 511 kts 78°
2026-04-25 16:33 40.89538 -61.05461 34855 ft 510 kts 78°
2026-04-25 16:34 40.90503 -60.96155 34846 ft 511 kts 78°
2026-04-25 16:34 40.91460 -60.86838 34844 ft 511 kts 78°
2026-04-25 16:35 40.92402 -60.77591 34837 ft 511 kts 79°
2026-04-25 16:35 40.93350 -60.68217 34838 ft 511 kts 79°
2026-04-25 16:36 40.94279 -60.58948 34830 ft 511 kts 79°
2026-04-25 16:36 40.95204 -60.49636 34826 ft 511 kts 79°
2026-04-25 16:37 40.96123 -60.40315 34820 ft 512 kts 79°
2026-04-25 16:37 40.97039 -60.30946 34822 ft 513 kts 79°
2026-04-25 16:38 40.97943 -60.21609 34822 ft 510 kts 79°
2026-04-25 16:38 40.98837 -60.12296 34821 ft 510 kts 79°
2026-04-25 16:39 40.99725 -60.02982 34815 ft 511 kts 80°
2026-04-25 16:39 41.00729 -59.93681 34814 ft 510 kts 76°
2026-04-25 16:40 41.02120 -59.84491 34805 ft 509 kts 75°
2026-04-25 16:40 41.03537 -59.75312 34798 ft 508 kts 75°
2026-04-25 16:41 41.04886 -59.66115 34805 ft 508 kts 76°
2026-04-25 16:41 41.06836 -59.52350 34789 ft 510 kts 76°
2026-04-25 16:42 41.08132 -59.43102 34791 ft 510 kts 76°
2026-04-25 16:42 41.09422 -59.33854 34788 ft 509 kts 76°
2026-04-25 16:43 41.10703 -59.24623 34787 ft 509 kts 76°
2026-04-25 16:43 41.11976 -59.15397 34776 ft 509 kts 77°
2026-04-25 16:44 41.13246 -59.06143 34774 ft 510 kts 77°
2026-04-25 16:44 41.14503 -58.96926 34766 ft 510 kts 77°
2026-04-25 16:45 41.15758 -58.87656 34768 ft 510 kts 77°
2026-04-25 16:45 41.17003 -58.78390 34755 ft 510 kts 77°
2026-04-25 16:46 41.18243 -58.69119 34757 ft 511 kts 77°
2026-04-25 16:46 41.19072 -58.62899 34749 ft 511 kts 77°
2026-04-25 16:47 41.20709 -58.50524 34752 ft 512 kts 77°
2026-04-25 16:47 41.21929 -58.41221 34741 ft 511 kts 77°
2026-04-25 16:48 41.23141 -58.31924 34743 ft 510 kts 77°
2026-04-25 16:48 41.24346 -58.22621 34741 ft 511 kts 77°
2026-04-25 16:49 41.25548 -58.13282 34738 ft 513 kts 78°
2026-04-25 16:49 41.26740 -58.03928 34732 ft 513 kts 78°
2026-04-25 16:50 41.27926 -57.94581 34735 ft 513 kts 78°
2026-04-25 16:50 41.29106 -57.85219 34727 ft 513 kts 78°
2026-04-25 16:51 41.30278 -57.75860 34727 ft 514 kts 77°
2026-04-25 16:51 41.31051 -57.69650 34723 ft 514 kts 77°
2026-04-25 16:52 41.32599 -57.57116 34731 ft 513 kts 78°
2026-04-25 16:52 41.33747 -57.47752 34714 ft 513 kts 78°
2026-04-25 16:53 41.35456 -57.33700 34709 ft 513 kts 78°
2026-04-25 16:54 41.36587 -57.24313 34706 ft 515 kts 79°
2026-04-25 16:54 41.37708 -57.14947 34704 ft 516 kts 78°
2026-04-25 16:55 41.38826 -57.05523 34700 ft 515 kts 78°
2026-04-25 16:55 41.39944 -56.96029 34693 ft 515 kts 78°
2026-04-25 16:56 41.41040 -56.86666 34690 ft 515 kts 79°
2026-04-25 16:56 41.42138 -56.77227 34689 ft 517 kts 79°
2026-04-25 16:57 41.43233 -56.67729 34683 ft 518 kts 79°
2026-04-25 16:57 41.44320 -56.58238 34676 ft 518 kts 79°
2026-04-25 16:58 41.45399 -56.48735 34667 ft 518 kts 79°
2026-04-25 16:58 41.46469 -56.39242 34669 ft 518 kts 79°
2026-04-25 16:59 41.47535 -56.29719 34663 ft 520 kts 79°
2026-04-25 16:59 41.48598 -56.20160 34660 ft 521 kts 79°
2026-04-25 17:00 41.49651 -56.10604 34657 ft 521 kts 79°
2026-04-25 17:00 41.50697 -56.01041 34656 ft 522 kts 80°
2026-04-25 17:01 41.51727 -55.91539 34650 ft 521 kts 80°
2026-04-25 17:01 41.52759 -55.81950 34650 ft 523 kts 80°
2026-04-25 17:02 41.53786 -55.72327 34651 ft 524 kts 80°
2026-04-25 17:02 41.54803 -55.62711 34646 ft 523 kts 80°
2026-04-25 17:03 41.55813 -55.53097 34640 ft 523 kts 80°
2026-04-25 17:03 41.56814 -55.43475 34635 ft 522 kts 81°
2026-04-25 17:04 41.57811 -55.33827 34630 ft 526 kts 81°
2026-04-25 17:04 41.58637 -55.25767 34631 ft 527 kts 81°
2026-04-25 17:05 41.59623 -55.16062 34626 ft 526 kts 81°
2026-04-25 17:05 41.61088 -55.01494 34612 ft 527 kts 81°
2026-04-25 17:06 41.62055 -54.91782 34622 ft 528 kts 81°
2026-04-25 17:06 41.63016 -54.82032 34611 ft 529 kts 81°
2026-04-25 17:07 41.63969 -54.72286 34613 ft 529 kts 82°
2026-04-25 17:07 41.64913 -54.62536 34603 ft 529 kts 82°
2026-04-25 17:08 41.65849 -54.52784 34606 ft 528 kts 82°
2026-04-25 17:08 41.66772 -54.43084 34609 ft 530 kts 82°
2026-04-25 17:09 41.67696 -54.33284 34608 ft 532 kts 82°
2026-04-25 17:09 41.68612 -54.23472 34600 ft 531 kts 82°
2026-04-25 17:10 41.69519 -54.13661 34602 ft 531 kts 82°
2026-04-25 17:10 41.70418 -54.03849 34597 ft 531 kts 82°
2026-04-25 17:11 41.71310 -53.94025 34598 ft 531 kts 83°
2026-04-25 17:11 41.72195 -53.84173 34595 ft 534 kts 83°
2026-04-25 17:12 41.73070 -53.74348 34592 ft 535 kts 83°
2026-04-25 17:12 41.73941 -53.64450 34591 ft 535 kts 83°
2026-04-25 17:13 41.74660 -53.56223 34592 ft 535 kts 83°
2026-04-25 17:13 41.75661 -53.44641 34597 ft 535 kts 83°
2026-04-25 17:14 41.76509 -53.34715 34584 ft 537 kts 83°
2026-04-25 17:14 41.77350 -53.24767 34584 ft 537 kts 83°
2026-04-25 17:15 41.78178 -53.14870 34580 ft 537 kts 83°
2026-04-25 17:15 41.79004 -53.04905 34581 ft 537 kts 83°
2026-04-25 17:16 41.79819 -52.94948 34578 ft 538 kts 83°
2026-04-25 17:16 41.80627 -52.84982 34575 ft 538 kts 84°
2026-04-25 17:17 41.81426 -52.75011 34572 ft 538 kts 84°
2026-04-25 17:17 41.82216 -52.65043 34572 ft 538 kts 84°
2026-04-25 17:18 41.82999 -52.55067 34574 ft 538 kts 84°
2026-04-25 17:18 41.83768 -52.45146 34570 ft 539 kts 84°
2026-04-25 17:19 41.84535 -52.35131 34567 ft 541 kts 84°
2026-04-25 17:19 41.85297 -52.25073 34569 ft 541 kts 84°
2026-04-25 17:20 41.86049 -52.15014 34567 ft 541 kts 84°
2026-04-25 17:20 41.86793 -52.04965 34582 ft 541 kts 84°
2026-04-25 17:21 41.87528 -51.94901 34566 ft 543 kts 85°
2026-04-25 17:21 41.88258 -51.84792 34564 ft 545 kts 85°
2026-04-25 17:22 41.88859 -51.76370 34567 ft 545 kts 85°
2026-04-25 17:22 41.89688 -51.64603 34564 ft 545 kts 85°
2026-04-25 17:23 41.90392 -51.54475 34564 ft 545 kts 85°
2026-04-25 17:23 41.91088 -51.44333 34564 ft 547 kts 86°
2026-04-25 17:24 41.91778 -51.34133 34562 ft 549 kts 86°
2026-04-25 17:24 41.92460 -51.23934 34564 ft 549 kts 86°
2026-04-25 17:25 41.93133 -51.13724 34573 ft 549 kts 86°
2026-04-25 17:25 41.93796 -51.03517 34564 ft 548 kts 86°
2026-04-25 17:26 41.94453 -50.93278 34559 ft 551 kts 86°
2026-04-25 17:26 41.95103 -50.82991 34558 ft 552 kts 86°
2026-04-25 17:27 41.95744 -50.72707 34562 ft 552 kts 86°
2026-04-25 17:27 41.96163 -50.65889 34562 ft 552 kts 87°
2026-04-25 17:28 41.96994 -50.52203 34545 ft 551 kts 87°
2026-04-25 17:28 41.97607 -50.41899 34561 ft 555 kts 87°
2026-04-25 17:29 41.98214 -50.31556 34561 ft 555 kts 87°
2026-04-25 17:29 41.98813 -50.21197 34562 ft 555 kts 88°
2026-04-25 17:30 41.99402 -50.10848 34565 ft 555 kts 88°
2026-04-25 17:30 42.00053 -50.00502 34554 ft 557 kts 83°
2026-04-25 17:31 42.01390 -49.90263 34561 ft 559 kts 81°
2026-04-25 17:31 42.02872 -49.79987 34556 ft 560 kts 80°
2026-04-25 17:32 42.04368 -49.69710 34560 ft 559 kts 81°
2026-04-25 17:32 42.05840 -49.59447 34561 ft 559 kts 81°
2026-04-25 17:33 42.07294 -49.49167 34556 ft 559 kts 81°
2026-04-25 17:33 42.08737 -49.38879 34567 ft 560 kts 81°
2026-04-25 17:34 42.10177 -49.28546 34549 ft 562 kts 81°
2026-04-25 17:34 42.11613 -49.18179 34558 ft 562 kts 81°
2026-04-25 17:35 42.13036 -49.07835 34562 ft 561 kts 82°
2026-04-25 17:35 42.14440 -48.97557 34564 ft 561 kts 82°
2026-04-25 17:36 42.15845 -48.87197 34560 ft 561 kts 82°
2026-04-25 17:36 42.17239 -48.76846 34563 ft 562 kts 82°
2026-04-25 17:37 42.18626 -48.66470 34569 ft 562 kts 82°
2026-04-25 17:37 42.20004 -48.56087 34572 ft 562 kts 82°
2026-04-25 17:38 42.20911 -48.49216 34562 ft 562 kts 82°
2026-04-25 17:38 42.22720 -48.35406 34570 ft 561 kts 83°
2026-04-25 17:39 42.24067 -48.25034 34572 ft 561 kts 83°
2026-04-25 17:39 42.25406 -48.14640 34584 ft 564 kts 83°
2026-04-25 17:40 42.26745 -48.04173 34576 ft 565 kts 83°
2026-04-25 17:40 42.28073 -47.93719 34576 ft 565 kts 83°
2026-04-25 17:41 42.29391 -47.83265 34573 ft 565 kts 83°
2026-04-25 17:41 42.30699 -47.72807 34578 ft 564 kts 84°
2026-04-25 17:42 42.31996 -47.62356 34576 ft 564 kts 84°
2026-04-25 17:42 42.33283 -47.51909 34581 ft 563 kts 84°
2026-04-25 17:43 42.34559 -47.41459 34578 ft 563 kts 84°
2026-04-25 17:43 42.35820 -47.31063 34578 ft 563 kts 84°
2026-04-25 17:44 42.37077 -47.20608 34581 ft 563 kts 84°
2026-04-25 17:44 42.38324 -47.10159 34582 ft 563 kts 84°
2026-04-25 17:45 42.39154 -47.03158 34571 ft 563 kts 84°
2026-04-25 17:45 42.40798 -46.89171 34590 ft 566 kts 85°
2026-04-25 17:46 42.42024 -46.78637 34595 ft 567 kts 85°
2026-04-25 17:46 42.43242 -46.68101 34592 ft 566 kts 85°
2026-04-25 17:47 42.44449 -46.57563 34589 ft 566 kts 85°
2026-04-25 17:47 42.45646 -46.47023 34595 ft 566 kts 85°
2026-04-25 17:48 42.47425 -46.31188 34594 ft 569 kts 86°
2026-04-25 17:49 42.48604 -46.20571 34597 ft 570 kts 86°
2026-04-25 17:49 42.49776 -46.09948 34603 ft 570 kts 86°
2026-04-25 17:50 42.50927 -45.99419 34603 ft 569 kts 86°
2026-04-25 17:50 42.52077 -45.88802 34602 ft 569 kts 86°
2026-04-25 17:51 42.53216 -45.78184 34577 ft 569 kts 86°
2026-04-25 17:51 42.54348 -45.67535 34608 ft 570 kts 87°
2026-04-25 17:52 42.55472 -45.56875 34607 ft 569 kts 87°
2026-04-25 17:52 42.56576 -45.46309 34612 ft 569 kts 87°
2026-04-25 17:53 42.57674 -45.35694 34608 ft 569 kts 87°
2026-04-25 17:53 42.58763 -45.25067 34610 ft 568 kts 87°
2026-04-25 17:54 42.59661 -45.16240 34574 ft 567 kts 88°
2026-04-25 17:54 42.60732 -45.05606 34619 ft 568 kts 88°
2026-04-25 17:55 42.61792 -44.94974 34620 ft 568 kts 88°
2026-04-25 17:55 42.62845 -44.84330 34623 ft 568 kts 88°
2026-04-25 17:56 42.63885 -44.73714 34625 ft 567 kts 88°
2026-04-25 17:56 42.64913 -44.63105 34622 ft 566 kts 88°
2026-04-25 17:57 42.65931 -44.52495 34607 ft 566 kts 88°
2026-04-25 17:57 42.66939 -44.41871 34628 ft 567 kts 88°
2026-04-25 17:58 42.67937 -44.31273 34631 ft 565 kts 88°
2026-04-25 17:58 42.68924 -44.20679 34634 ft 565 kts 88°
2026-04-25 17:59 42.69900 -44.10084 34634 ft 565 kts 88°
2026-04-25 17:59 42.70866 -43.99490 34636 ft 564 kts 89°
2026-04-25 18:00 42.71821 -43.88922 34626 ft 563 kts 89°
2026-04-25 18:00 42.72764 -43.78355 34641 ft 563 kts 89°
2026-04-25 18:01 42.73697 -43.67789 34642 ft 562 kts 89°
2026-04-25 18:01 42.74621 -43.57227 34636 ft 562 kts 89°
2026-04-25 18:02 42.75533 -43.46684 34650 ft 561 kts 89°
2026-04-25 18:02 42.76429 -43.36204 34639 ft 560 kts 89°
2026-04-25 18:03 42.77320 -43.25669 34634 ft 560 kts 89°
2026-04-25 18:03 42.78202 -43.15124 34645 ft 560 kts 89°
2026-04-25 18:04 42.79074 -43.04586 34649 ft 560 kts 89°
2026-04-25 18:04 42.79936 -42.94046 34649 ft 560 kts 89°
2026-04-25 18:05 42.80788 -42.83505 34647 ft 560 kts 89°
2026-04-25 18:05 42.81630 -42.72965 34647 ft 559 kts 89°
2026-04-25 18:06 42.82462 -42.62442 34650 ft 558 kts 89°
2026-04-25 18:06 42.83282 -42.51936 34657 ft 557 kts 89°
2026-04-25 18:07 42.84092 -42.41417 34662 ft 557 kts 89°
2026-04-25 18:07 42.84891 -42.30932 34656 ft 556 kts 89°
2026-04-25 18:08 42.85680 -42.20441 34661 ft 556 kts 89°
2026-04-25 18:08 42.86459 -42.09952 34661 ft 556 kts 90°
2026-04-25 18:09 42.87224 -41.99519 34646 ft 556 kts 90°
2026-04-25 18:09 42.87984 -41.89024 34663 ft 556 kts 90°
2026-04-25 18:10 42.88739 -41.78478 34665 ft 555 kts 90°
2026-04-25 18:10 42.89473 -41.68084 34660 ft 554 kts 90°
2026-04-25 18:11 42.90202 -41.57610 34664 ft 554 kts 90°
2026-04-25 18:11 42.90922 -41.47128 34665 ft 554 kts 90°
2026-04-25 18:12 42.91632 -41.36671 34668 ft 553 kts 90°
2026-04-25 18:12 42.92330 -41.26219 34669 ft 553 kts 90°
2026-04-25 18:13 42.93019 -41.15765 34671 ft 553 kts 90°
2026-04-25 18:13 42.93699 -41.05312 34670 ft 553 kts 90°
2026-04-25 18:14 42.94700 -40.89654 34672 ft 552 kts 90°
2026-04-25 18:14 42.95351 -40.79265 34674 ft 552 kts 91°
2026-04-25 18:15 42.95996 -40.68816 34675 ft 554 kts 91°
2026-04-25 18:15 42.96635 -40.58308 34676 ft 555 kts 91°
2026-04-25 18:16 42.97265 -40.47809 34678 ft 555 kts 91°
2026-04-25 18:17 42.98192 -40.32059 34676 ft 554 kts 91°
2026-04-25 18:17 42.98797 -40.21562 34682 ft 554 kts 91°
2026-04-25 18:18 42.99392 -40.11062 34646 ft 555 kts 91°
2026-04-25 18:18 42.99975 -40.00575 34685 ft 560 kts 91°
2026-04-25 18:19 43.00494 -39.89971 34682 ft 559 kts 92°
2026-04-25 18:19 43.00918 -39.79364 34678 ft 558 kts 92°
2026-04-25 18:20 43.01334 -39.68772 34681 ft 558 kts 92°
2026-04-25 18:20 43.01755 -39.58184 34678 ft 558 kts 92°
2026-04-25 18:21 43.02173 -39.47596 34674 ft 558 kts 92°
2026-04-25 18:21 43.02582 -39.36986 34687 ft 560 kts 92°
2026-04-25 18:22 43.02984 -39.26354 34692 ft 560 kts 92°
2026-04-25 18:22 43.03375 -39.15730 34688 ft 560 kts 92°
2026-04-25 18:23 43.03753 -39.05174 34688 ft 559 kts 92°
2026-04-25 18:23 43.04123 -38.94554 34700 ft 559 kts 92°
2026-04-25 18:24 43.04484 -38.83934 34689 ft 559 kts 92°
2026-04-25 18:24 43.04835 -38.73302 34706 ft 559 kts 92°
2026-04-25 18:25 43.05175 -38.62690 34705 ft 559 kts 92°
2026-04-25 18:25 43.05505 -38.52078 34714 ft 559 kts 92°
2026-04-25 18:26 43.05826 -38.41467 34717 ft 558 kts 92°
2026-04-25 18:26 43.06137 -38.30865 34721 ft 558 kts 92°
2026-04-25 18:27 43.06438 -38.20252 34729 ft 558 kts 92°
2026-04-25 18:27 43.06729 -38.09674 34736 ft 557 kts 92°
2026-04-25 18:28 43.07009 -37.99077 34747 ft 556 kts 92°
2026-04-25 18:28 43.07280 -37.88522 34746 ft 556 kts 92°
2026-04-25 18:29 43.07667 -37.72659 34760 ft 556 kts 92°
2026-04-25 18:30 43.08148 -37.51640 34772 ft 553 kts 92°
2026-04-25 18:30 43.08373 -37.41133 34784 ft 553 kts 92°
2026-04-25 18:31 43.08589 -37.30619 34784 ft 553 kts 92°
2026-04-25 18:31 43.08795 -37.20102 34786 ft 553 kts 92°
2026-04-25 18:32 43.08991 -37.09596 34793 ft 553 kts 92°
2026-04-25 18:32 43.09178 -36.99089 34802 ft 552 kts 92°
2026-04-25 18:33 43.09356 -36.88599 34810 ft 551 kts 92°
2026-04-25 18:33 43.09523 -36.78122 34813 ft 551 kts 92°
2026-04-25 18:34 43.09680 -36.67646 34824 ft 550 kts 92°
2026-04-25 18:34 43.09828 -36.57203 34826 ft 549 kts 92°
2026-04-25 18:35 43.09966 -36.46824 34832 ft 549 kts 92°
2026-04-25 18:35 43.10094 -36.36368 34835 ft 548 kts 92°
2026-04-25 18:36 43.10213 -36.25980 34853 ft 545 kts 92°
2026-04-25 18:36 43.10322 -36.15620 34854 ft 544 kts 92°
2026-04-25 18:37 43.10421 -36.05252 34859 ft 544 kts 92°
2026-04-25 18:37 43.10511 -35.94907 34872 ft 544 kts 92°
2026-04-25 18:38 43.10592 -35.84556 34872 ft 543 kts 92°
2026-04-25 18:38 43.10663 -35.74304 34873 ft 541 kts 92°
2026-04-25 18:39 43.10726 -35.64008 34887 ft 540 kts 92°
2026-04-25 18:39 43.10778 -35.53736 34890 ft 540 kts 92°
2026-04-25 18:40 43.10821 -35.43466 34888 ft 540 kts 92°
2026-04-25 18:40 43.10855 -35.33179 34892 ft 541 kts 92°
2026-04-25 18:41 43.10877 -35.24612 34903 ft 540 kts 92°
2026-04-25 18:41 43.10894 -35.14337 34907 ft 540 kts 92°
2026-04-25 18:42 43.10902 -35.05785 34907 ft 540 kts 92°
2026-04-25 18:42 43.10901 -34.93754 34921 ft 541 kts 92°
2026-04-25 18:43 43.10891 -34.83521 34924 ft 541 kts 92°
2026-04-25 18:43 43.10872 -34.73234 34936 ft 540 kts 92°
2026-04-25 18:44 43.10844 -34.62948 34928 ft 540 kts 92°
2026-04-25 18:44 43.10806 -34.52670 34926 ft 540 kts 92°
2026-04-25 18:45 43.10758 -34.42378 34948 ft 540 kts 92°
2026-04-25 18:45 43.10702 -34.32099 34948 ft 540 kts 92°
2026-04-25 18:46 43.10637 -34.21820 34947 ft 540 kts 92°
2026-04-25 18:46 43.10562 -34.11540 34954 ft 540 kts 92°
2026-04-25 18:47 43.10479 -34.01273 34971 ft 540 kts 92°
2026-04-25 18:47 43.10386 -33.90995 34940 ft 539 kts 93°
2026-04-25 18:48 43.10286 -33.80850 34973 ft 536 kts 93°
2026-04-25 18:48 43.10176 -33.70671 34974 ft 534 kts 93°
2026-04-25 18:49 43.10057 -33.60515 34977 ft 533 kts 93°
2026-04-25 18:49 43.09929 -33.50391 34988 ft 532 kts 93°
2026-04-25 18:50 43.09792 -33.40263 34990 ft 532 kts 93°
2026-04-25 18:50 43.09646 -33.30129 34991 ft 532 kts 94°
2026-04-25 18:51 43.09519 -33.21718 35001 ft 532 kts 94°
2026-04-25 18:51 43.09329 -33.09884 35007 ft 532 kts 94°
2026-04-25 18:52 43.09157 -32.99761 35012 ft 532 kts 94°
2026-04-25 18:52 43.08976 -32.89646 35020 ft 532 kts 94°
2026-04-25 18:53 43.08788 -32.79597 35028 ft 532 kts 94°
2026-04-25 18:53 43.08589 -32.69480 35027 ft 532 kts 94°
2026-04-25 18:54 43.08275 -32.54321 35037 ft 531 kts 94°
2026-04-25 18:55 43.08054 -32.44225 35038 ft 531 kts 94°
2026-04-25 18:55 43.07824 -32.34118 35043 ft 531 kts 94°
2026-04-25 18:56 43.07586 -32.24022 35050 ft 531 kts 94°
2026-04-25 18:56 43.07339 -32.13928 35049 ft 531 kts 94°
2026-04-25 18:57 43.07083 -32.03843 35042 ft 531 kts 94°
2026-04-25 18:57 43.06818 -31.93757 35060 ft 530 kts 94°
2026-04-25 18:58 43.06545 -31.83683 35064 ft 530 kts 94°
2026-04-25 18:58 43.06120 -31.68626 35067 ft 530 kts 94°
2026-04-25 18:59 43.05520 -31.48493 35074 ft 531 kts 94°
2026-04-25 19:00 43.05046 -31.33357 35090 ft 531 kts 93°
2026-04-25 19:01 43.04552 -31.18209 35091 ft 532 kts 93°
2026-04-25 19:01 43.04212 -31.08115 35086 ft 532 kts 93°
2026-04-25 19:02 43.03684 -30.92965 35097 ft 532 kts 93°
2026-04-25 19:03 43.03261 -30.81227 35097 ft 532 kts 94°
2026-04-25 19:03 43.02760 -30.67727 35104 ft 531 kts 93°
2026-04-25 19:04 43.02183 -30.52671 35103 ft 531 kts 93°
2026-04-25 19:05 43.01375 -30.32435 35103 ft 531 kts 93°
2026-04-25 19:06 43.00962 -30.22408 35109 ft 531 kts 94°
2026-04-25 19:06 43.00322 -30.07307 35108 ft 530 kts 93°
2026-04-25 19:07 43.00329 -29.92236 35111 ft 529 kts 86°
2026-04-25 19:08 43.00959 -29.77184 35112 ft 528 kts 85°
2026-04-25 19:09 43.01730 -29.58831 35125 ft 529 kts 86°
2026-04-25 19:10 43.02388 -29.42084 35129 ft 529 kts 86°
2026-04-25 19:10 43.02769 -29.32059 35126 ft 527 kts 85°
2026-04-25 19:11 43.03142 -29.22056 35132 ft 527 kts 86°
2026-04-25 19:11 43.03505 -29.12059 35132 ft 527 kts 86°
2026-04-25 19:12 43.03860 -29.02076 35134 ft 525 kts 86°
2026-04-25 19:12 43.04205 -28.92115 35132 ft 524 kts 86°
2026-04-25 19:13 43.04538 -28.82231 35135 ft 523 kts 86°
2026-04-25 19:13 43.04864 -28.72313 35133 ft 511 kts 86°
2026-04-25 19:13 43.05015 -28.67587 35135 ft 498 kts 86°
2026-04-25 19:14 43.05164 -28.62866 35145 ft 497 kts 86°
2026-04-25 19:14 43.05464 -28.53316 35138 ft 506 kts 86°
2026-04-25 19:15 43.05761 -28.43625 35144 ft 515 kts 86°
2026-04-25 19:15 43.06053 -28.33763 35142 ft 523 kts 86°
2026-04-25 19:16 43.06337 -28.23814 35145 ft 523 kts 86°
2026-04-25 19:16 43.06612 -28.13891 35142 ft 522 kts 86°
2026-04-25 19:17 43.06879 -28.03980 35147 ft 521 kts 87°
2026-04-25 19:17 43.07137 -27.94074 35141 ft 521 kts 87°
2026-04-25 19:18 43.07386 -27.84175 35146 ft 521 kts 87°
2026-04-25 19:18 43.07627 -27.74277 35136 ft 520 kts 87°
2026-04-25 19:19 43.07859 -27.64403 35141 ft 519 kts 87°
2026-04-25 19:19 43.08082 -27.54557 35140 ft 518 kts 87°
2026-04-25 19:20 43.08296 -27.44696 35146 ft 517 kts 87°
2026-04-25 19:20 43.08501 -27.34876 35141 ft 516 kts 87°
2026-04-25 19:21 43.08696 -27.25134 35141 ft 515 kts 87°
2026-04-25 19:21 43.08975 -27.10440 35144 ft 515 kts 88°
2026-04-25 19:22 43.09152 -27.00580 35141 ft 515 kts 88°
2026-04-25 19:23 43.09398 -26.85930 35138 ft 515 kts 88°
2026-04-25 19:23 43.09626 -26.71265 35140 ft 513 kts 88°
2026-04-25 19:24 43.09768 -26.61503 35144 ft 513 kts 88°
2026-04-25 19:25 43.10026 -26.41983 35136 ft 513 kts 88°
2026-04-25 19:25 43.10142 -26.32225 35140 ft 513 kts 88°
2026-04-25 19:26 43.10251 -26.22467 35142 ft 513 kts 88°
2026-04-25 19:26 43.10334 -26.14352 35144 ft 513 kts 88°
2026-04-25 19:27 43.10412 -26.06250 35145 ft 513 kts 88°
2026-04-25 19:27 43.10525 -25.93255 35140 ft 512 kts 88°
2026-04-25 19:28 43.10588 -25.85095 35139 ft 512 kts 88°
2026-04-25 19:28 43.10656 -25.75346 35142 ft 512 kts 88°
2026-04-25 19:29 43.10716 -25.65606 35142 ft 512 kts 88°
2026-04-25 19:29 43.10767 -25.55926 35143 ft 512 kts 88°
2026-04-25 19:30 43.10810 -25.46179 35137 ft 512 kts 88°
2026-04-25 19:30 43.10845 -25.36450 35141 ft 512 kts 88°
2026-04-25 19:31 43.10872 -25.26719 35140 ft 511 kts 89°
2026-04-25 19:31 43.10890 -25.16979 35133 ft 511 kts 89°
2026-04-25 19:32 43.10900 -25.07251 35141 ft 510 kts 88°
2026-04-25 19:32 43.10903 -24.99174 35137 ft 510 kts 89°
2026-04-25 19:33 43.10896 -24.87813 35138 ft 510 kts 89°
2026-04-25 19:33 43.10882 -24.78110 35139 ft 510 kts 89°
2026-04-25 19:34 43.10859 -24.68380 35138 ft 510 kts 89°
2026-04-25 19:34 43.10828 -24.58683 35132 ft 510 kts 89°
2026-04-25 19:35 43.10789 -24.49021 35136 ft 510 kts 89°
2026-04-25 19:35 43.10742 -24.39311 35132 ft 510 kts 89°
2026-04-25 19:36 43.10686 -24.29599 35130 ft 509 kts 89°
2026-04-25 19:36 43.10623 -24.19923 35127 ft 508 kts 89°
2026-04-25 19:37 43.10551 -24.10248 35127 ft 508 kts 89°
2026-04-25 19:37 43.10472 -24.00583 35120 ft 508 kts 89°
2026-04-25 19:38 43.10384 -23.90905 35123 ft 508 kts 89°
2026-04-25 19:38 43.10287 -23.81235 35123 ft 508 kts 89°
2026-04-25 19:39 43.10184 -23.71576 35123 ft 508 kts 90°
2026-04-25 19:39 43.10072 -23.61913 35122 ft 508 kts 90°
2026-04-25 19:40 43.09951 -23.52250 35123 ft 508 kts 90°
2026-04-25 19:40 43.09824 -23.42656 35115 ft 507 kts 90°
2026-04-25 19:41 43.09688 -23.33024 35119 ft 507 kts 90°
2026-04-25 19:41 43.09568 -23.24954 35114 ft 507 kts 91°
2026-04-25 19:42 43.09391 -23.13746 35118 ft 506 kts 91°
2026-04-25 19:42 43.09231 -23.04102 35113 ft 507 kts 91°
2026-04-25 19:43 43.09063 -22.94461 35110 ft 507 kts 91°
2026-04-25 19:43 43.08885 -22.84812 35112 ft 507 kts 91°
2026-04-25 19:44 43.08701 -22.75176 35115 ft 507 kts 91°
2026-04-25 19:44 43.08508 -22.65527 35107 ft 508 kts 92°
2026-04-25 19:45 43.08307 -22.55886 35111 ft 506 kts 92°
2026-04-25 19:45 43.08098 -22.46271 35110 ft 506 kts 92°
2026-04-25 19:46 43.07882 -22.36654 35112 ft 506 kts 92°
2026-04-25 19:46 43.07657 -22.27039 35114 ft 506 kts 92°
2026-04-25 19:47 43.07424 -22.17420 35112 ft 506 kts 92°
2026-04-25 19:47 43.07185 -22.07862 35110 ft 506 kts 92°
2026-04-25 19:48 43.06936 -21.98236 35110 ft 506 kts 92°
2026-04-25 19:48 43.06679 -21.88637 35113 ft 506 kts 92°
2026-04-25 19:49 43.06502 -21.82185 35115 ft 507 kts 92°
2026-04-25 19:49 43.06139 -21.69361 35119 ft 508 kts 93°
2026-04-25 19:50 43.05713 -21.54870 35123 ft 508 kts 93°
2026-04-25 19:51 43.05417 -21.45162 35120 ft 512 kts 93°
2026-04-25 19:51 43.05111 -21.35424 35121 ft 513 kts 94°
2026-04-25 19:52 43.04800 -21.25745 35121 ft 513 kts 94°
2026-04-25 19:52 43.04478 -21.16008 35123 ft 513 kts 94°
2026-04-25 19:53 43.04144 -21.06173 35125 ft 520 kts 95°
2026-04-25 19:53 43.03800 -20.96282 35124 ft 522 kts 95°
2026-04-25 19:54 43.03446 -20.86344 35127 ft 525 kts 95°
2026-04-25 19:54 43.03083 -20.76366 35125 ft 527 kts 96°
2026-04-25 19:55 43.02706 -20.66316 35123 ft 530 kts 96°
2026-04-25 19:55 43.02321 -20.56249 35128 ft 531 kts 96°
2026-04-25 19:56 43.01928 -20.46183 35134 ft 531 kts 97°
2026-04-25 19:56 43.01525 -20.36140 35130 ft 534 kts 97°
2026-04-25 19:57 43.01110 -20.25994 35127 ft 535 kts 97°
2026-04-25 19:57 43.00686 -20.15840 35129 ft 535 kts 97°
2026-04-25 19:58 43.00254 -20.05703 35134 ft 536 kts 97°
2026-04-25 19:58 43.00497 -19.95488 35135 ft 541 kts 86°
2026-04-25 19:59 43.01447 -19.85291 35135 ft 542 kts 84°
2026-04-25 19:59 43.02508 -19.75075 35138 ft 543 kts 84°
2026-04-25 20:00 43.03557 -19.64848 35140 ft 544 kts 84°
2026-04-25 20:00 43.04580 -19.54601 35140 ft 544 kts 85°
2026-04-25 20:01 43.06085 -19.39219 35141 ft 544 kts 84°
2026-04-25 20:01 43.07077 -19.28965 35141 ft 544 kts 84°
2026-04-25 20:02 43.08059 -19.18716 35141 ft 544 kts 84°
2026-04-25 20:02 43.09033 -19.08452 35147 ft 544 kts 84°
2026-04-25 20:03 43.09999 -18.98167 35149 ft 545 kts 84°
2026-04-25 20:03 43.10957 -18.87881 35148 ft 545 kts 84°
2026-04-25 20:04 43.11898 -18.77665 35152 ft 545 kts 85°
2026-04-25 20:04 43.12836 -18.67378 35154 ft 545 kts 85°
2026-04-25 20:05 43.13766 -18.57084 35153 ft 545 kts 85°
2026-04-25 20:05 43.14685 -18.46795 35150 ft 541 kts 85°
2026-04-25 20:06 43.15590 -18.36562 35157 ft 543 kts 84°
2026-04-25 20:06 43.16488 -18.26293 35156 ft 544 kts 84°
2026-04-25 20:07 43.17380 -18.16004 35159 ft 543 kts 84°
2026-04-25 20:07 43.18261 -18.05728 35160 ft 543 kts 85°
2026-04-25 20:08 43.19132 -17.95458 35165 ft 541 kts 85°
2026-04-25 20:08 43.19990 -17.85225 35160 ft 536 kts 85°
2026-04-25 20:09 43.20827 -17.75133 35170 ft 535 kts 86°
2026-04-25 20:09 43.21656 -17.65030 35173 ft 533 kts 86°
2026-04-25 20:10 43.22473 -17.54949 35181 ft 531 kts 86°
2026-04-25 20:10 43.23281 -17.44875 35179 ft 531 kts 86°
2026-04-25 20:11 43.24081 -17.34794 35184 ft 531 kts 86°
2026-04-25 20:11 43.24869 -17.24747 35186 ft 530 kts 86°
2026-04-25 20:12 43.25644 -17.14751 35188 ft 530 kts 86°
2026-04-25 20:12 43.26161 -17.08023 35189 ft 530 kts 86°
2026-04-25 20:13 43.27177 -16.94638 35187 ft 530 kts 87°
2026-04-25 20:13 43.27930 -16.84574 35198 ft 530 kts 87°
2026-04-25 20:14 43.28674 -16.74518 35198 ft 530 kts 87°
2026-04-25 20:14 43.29409 -16.64454 35196 ft 530 kts 87°
2026-04-25 20:15 43.30014 -16.56083 35200 ft 530 kts 87°
2026-04-25 20:15 43.30733 -16.46019 35203 ft 530 kts 87°
2026-04-25 20:16 43.31443 -16.35955 35203 ft 530 kts 87°
2026-04-25 20:16 43.32145 -16.25881 35206 ft 529 kts 88°
2026-04-25 20:17 43.32836 -16.15821 35211 ft 529 kts 88°
2026-04-25 20:17 43.33520 -16.05750 35211 ft 529 kts 88°
2026-04-25 20:18 43.34194 -15.95687 35208 ft 529 kts 88°
2026-04-25 20:18 43.34858 -15.85640 35217 ft 528 kts 88°
2026-04-25 20:19 43.35513 -15.75593 35216 ft 528 kts 88°
2026-04-25 20:19 43.36158 -15.65552 35216 ft 528 kts 88°
2026-04-25 20:20 43.36795 -15.55519 35219 ft 526 kts 88°
2026-04-25 20:20 43.37417 -15.45581 35219 ft 525 kts 88°
2026-04-25 20:21 43.38034 -15.35569 35220 ft 525 kts 88°
2026-04-25 20:21 43.38641 -15.25580 35227 ft 524 kts 88°
2026-04-25 20:22 43.39139 -15.17280 35224 ft 524 kts 88°
2026-04-25 20:22 43.39828 -15.05614 35225 ft 524 kts 88°
2026-04-25 20:23 43.40408 -14.95628 35227 ft 524 kts 88°
2026-04-25 20:23 43.40979 -14.85653 35230 ft 522 kts 88°
2026-04-25 20:24 43.41540 -14.75701 35227 ft 522 kts 88°
2026-04-25 20:24 43.42093 -14.65738 35227 ft 522 kts 88°
2026-04-25 20:25 43.42637 -14.55773 35225 ft 522 kts 88°
2026-04-25 20:25 43.43168 -14.45891 35233 ft 521 kts 88°
2026-04-25 20:26 43.43697 -14.35877 35233 ft 521 kts 88°
2026-04-25 20:26 43.44211 -14.25988 35233 ft 521 kts 88°
2026-04-25 20:27 43.44720 -14.16033 35231 ft 521 kts 88°
2026-04-25 20:27 43.45224 -14.06003 35233 ft 521 kts 88°
2026-04-25 20:28 43.45712 -13.96113 35233 ft 521 kts 88°
2026-04-25 20:28 43.46194 -13.86158 35233 ft 521 kts 88°
2026-04-25 20:29 43.46668 -13.76219 35238 ft 520 kts 88°
2026-04-25 20:29 43.47132 -13.66276 35233 ft 520 kts 88°
2026-04-25 20:30 43.47588 -13.56343 35242 ft 520 kts 88°
2026-04-25 20:30 43.48035 -13.46401 35239 ft 520 kts 88°
2026-04-25 20:31 43.48473 -13.36459 35239 ft 520 kts 88°
2026-04-25 20:31 43.48903 -13.26529 35237 ft 520 kts 88°
2026-04-25 20:32 43.49324 -13.16593 35241 ft 520 kts 88°
2026-04-25 20:32 43.49733 -13.06728 35236 ft 519 kts 88°
2026-04-25 20:33 43.49897 -12.96818 35243 ft 516 kts 93°
2026-04-25 20:33 43.49723 -12.88536 35237 ft 516 kts 94°
2026-04-25 20:34 43.49399 -12.77060 35231 ft 515 kts 94°
2026-04-25 20:34 43.49106 -12.67208 35239 ft 514 kts 94°
2026-04-25 20:35 43.48814 -12.57383 35241 ft 514 kts 94°
2026-04-25 20:35 43.48516 -12.47560 35240 ft 514 kts 94°
2026-04-25 20:36 43.48211 -12.37734 35242 ft 513 kts 94°
2026-04-25 20:36 43.47897 -12.27913 35239 ft 512 kts 94°
2026-04-25 20:37 43.47576 -12.18110 35239 ft 512 kts 94°
2026-04-25 20:37 43.47245 -12.08311 35239 ft 512 kts 94°
2026-04-25 20:38 43.46907 -11.98526 35237 ft 512 kts 94°
2026-04-25 20:38 43.46560 -11.88729 35237 ft 512 kts 94°
2026-04-25 20:39 43.46205 -11.78926 35252 ft 512 kts 94°
2026-04-25 20:39 43.45903 -11.70781 35234 ft 512 kts 94°
2026-04-25 20:40 43.45472 -11.59402 35231 ft 512 kts 94°
2026-04-25 20:40 43.45092 -11.49610 35231 ft 512 kts 94°
2026-04-25 20:41 43.44703 -11.39825 35237 ft 512 kts 94°
2026-04-25 20:41 43.44308 -11.30054 35221 ft 511 kts 95°
2026-04-25 20:42 43.43904 -11.20291 35232 ft 510 kts 95°
2026-04-25 20:42 43.43492 -11.10565 35227 ft 510 kts 95°
2026-04-25 20:43 43.43072 -11.00829 35225 ft 510 kts 95°
2026-04-25 20:43 43.42644 -10.91085 35229 ft 510 kts 96°
2026-04-25 20:44 43.42207 -10.81353 35226 ft 510 kts 96°
2026-04-25 20:44 43.41763 -10.71622 35229 ft 510 kts 96°
2026-04-25 20:45 43.41311 -10.61894 35226 ft 510 kts 96°
2026-04-25 20:45 43.40853 -10.52229 35221 ft 510 kts 96°
2026-04-25 20:46 43.40383 -10.42490 35222 ft 511 kts 96°
2026-04-25 20:46 43.39904 -10.32744 35216 ft 511 kts 96°
2026-04-25 20:47 43.39418 -10.23005 35222 ft 511 kts 96°
2026-04-25 20:47 43.38924 -10.13279 35225 ft 509 kts 96°
2026-04-25 20:48 43.38423 -10.03574 35211 ft 508 kts 96°
2026-04-25 20:48 43.37914 -9.93894 35209 ft 507 kts 96°
2026-04-25 20:49 43.37398 -9.84218 35208 ft 507 kts 96°
2026-04-25 20:49 43.36874 -9.74564 35206 ft 506 kts 96°
2026-04-25 20:50 43.36344 -9.64933 35203 ft 505 kts 96°
2026-04-25 20:50 43.35806 -9.55312 35203 ft 505 kts 96°
2026-04-25 20:51 43.35260 -9.45696 35187 ft 505 kts 96°
2026-04-25 20:51 43.34706 -9.36086 35187 ft 505 kts 96°
2026-04-25 20:52 43.34240 -9.28097 35186 ft 505 kts 96°
2026-04-25 20:52 43.33575 -9.16868 35181 ft 504 kts 96°
2026-04-25 20:53 43.33000 -9.07314 35180 ft 504 kts 96°
2026-04-25 20:53 43.32415 -8.97725 35182 ft 503 kts 96°
2026-04-25 20:54 43.31823 -8.88150 35171 ft 503 kts 96°
2026-04-25 20:54 43.31224 -8.78596 35170 ft 503 kts 96°
2026-04-25 20:55 43.30617 -8.69036 35169 ft 503 kts 96°
2026-04-25 20:55 43.29999 -8.59453 35168 ft 505 kts 95°
2026-04-25 20:56 43.29373 -8.49849 35164 ft 505 kts 95°
2026-04-25 20:56 43.28739 -8.40251 35153 ft 505 kts 95°
2026-04-25 20:57 43.28097 -8.30663 35160 ft 505 kts 95°
2026-04-25 20:57 43.27445 -8.21057 35160 ft 506 kts 95°
2026-04-25 20:58 43.26786 -8.11453 35165 ft 506 kts 95°
2026-04-25 20:58 43.26119 -8.01841 35174 ft 506 kts 95°
2026-04-25 20:59 43.25447 -7.92293 35182 ft 506 kts 95°
2026-04-25 20:59 43.24763 -7.82687 35189 ft 506 kts 95°
2026-04-25 21:00 43.24300 -7.76256 35188 ft 506 kts 95°
2026-04-25 21:01 43.23017 -7.58675 35189 ft 505 kts 95°
2026-04-25 21:01 43.22428 -7.50711 35184 ft 504 kts 95°
2026-04-25 21:02 43.21712 -7.41154 35184 ft 504 kts 95°
2026-04-25 21:02 43.20954 -7.31614 35184 ft 504 kts 97°
2026-04-25 21:03 43.19820 -7.22139 35174 ft 504 kts 99°
2026-04-25 21:03 43.18579 -7.12639 35179 ft 502 kts 99°
2026-04-25 21:04 43.17398 -7.03271 35179 ft 502 kts 98°
2026-04-25 21:04 43.16239 -6.93840 35179 ft 502 kts 98°
2026-04-25 21:05 43.15081 -6.84404 35182 ft 502 kts 98°
2026-04-25 21:05 43.13920 -6.74995 35180 ft 501 kts 98°
2026-04-25 21:06 43.12747 -6.65590 35179 ft 500 kts 98°
2026-04-25 21:06 43.11568 -6.56208 35182 ft 500 kts 98°
2026-04-25 21:07 43.10379 -6.46810 35186 ft 501 kts 98°
2026-04-25 21:07 43.09186 -6.37447 35187 ft 499 kts 98°
2026-04-25 21:08 43.07986 -6.28090 35183 ft 499 kts 98°
2026-04-25 21:08 43.06780 -6.18749 35189 ft 499 kts 98°
2026-04-25 21:09 43.04958 -6.04756 35200 ft 496 kts 98°
2026-04-25 21:09 43.03748 -5.95540 35198 ft 495 kts 98°
2026-04-25 21:10 43.02526 -5.86292 35194 ft 494 kts 98°
2026-04-25 21:10 43.01297 -5.77045 35202 ft 495 kts 98°
2026-04-25 21:11 43.00059 -5.67795 35203 ft 493 kts 99°
2026-04-25 21:11 42.98818 -5.58578 35206 ft 492 kts 99°
2026-04-25 21:12 42.97581 -5.49444 35206 ft 492 kts 99°
2026-04-25 21:12 42.96533 -5.41758 35202 ft 492 kts 99°
2026-04-25 21:13 42.95069 -5.31080 35211 ft 492 kts 99°
2026-04-25 21:13 42.93801 -5.21900 35271 ft 493 kts 99°
2026-04-25 21:14 42.92520 -5.12686 35319 ft 494 kts 99°
2026-04-25 21:14 42.91232 -5.03472 35313 ft 494 kts 99°
2026-04-25 21:15 42.89936 -4.94257 35317 ft 496 kts 101°
2026-04-25 21:15 42.88626 -4.85008 35393 ft 496 kts 101°
2026-04-25 21:16 42.87970 -4.80390 35516 ft 496 kts 101°
2026-04-25 21:16 42.87312 -4.75780 35642 ft 495 kts 101°
2026-04-25 21:16 42.86651 -4.71155 35768 ft 495 kts 101°
2026-04-25 21:16 42.85990 -4.66553 35893 ft 494 kts 101°
2026-04-25 21:17 42.85330 -4.61968 36017 ft 494 kts 101°
2026-04-25 21:17 42.84668 -4.57381 36147 ft 493 kts 101°
2026-04-25 21:17 42.83346 -4.48262 36219 ft 493 kts 101°
2026-04-25 21:18 42.82010 -4.39101 36220 ft 493 kts 101°
2026-04-25 21:18 42.80666 -4.29939 36221 ft 493 kts 101°
2026-04-25 21:19 42.79312 -4.20761 36226 ft 494 kts 101°
2026-04-25 21:19 42.77952 -4.11598 36219 ft 494 kts 101°
2026-04-25 21:20 42.76816 -4.03986 36220 ft 494 kts 101°
2026-04-25 21:20 42.75210 -3.93284 36221 ft 494 kts 101°
2026-04-25 21:21 42.73827 -3.84128 36218 ft 494 kts 102°
2026-04-25 21:21 42.72438 -3.74977 36217 ft 495 kts 102°
2026-04-25 21:22 42.71044 -3.65852 36214 ft 496 kts 102°
2026-04-25 21:22 42.69634 -3.56676 36212 ft 496 kts 102°
2026-04-25 21:23 42.68217 -3.47503 36211 ft 496 kts 102°
2026-04-25 21:23 42.66791 -3.38322 36213 ft 497 kts 102°
2026-04-25 21:24 42.65351 -3.29107 36210 ft 499 kts 102°
2026-04-25 21:24 42.63902 -3.19878 36208 ft 500 kts 102°
2026-04-25 21:25 42.62444 -3.10652 36208 ft 500 kts 102°
2026-04-25 21:25 42.60979 -3.01427 36210 ft 500 kts 102°
2026-04-25 21:26 42.59507 -2.92205 36207 ft 500 kts 103°
2026-04-25 21:26 42.58036 -2.83046 36204 ft 500 kts 103°
2026-04-25 21:27 42.56549 -2.73840 36199 ft 499 kts 103°
2026-04-25 21:27 42.55055 -2.64639 36197 ft 499 kts 103°
2026-04-25 21:28 42.53556 -2.55453 36186 ft 498 kts 103°
2026-04-25 21:28 42.52054 -2.46297 36191 ft 498 kts 103°
2026-04-25 21:29 42.50542 -2.37136 36178 ft 498 kts 103°
2026-04-25 21:29 42.49024 -2.27981 36170 ft 498 kts 103°
2026-04-25 21:30 42.47499 -2.18839 36171 ft 497 kts 103°
2026-04-25 21:30 42.46229 -2.11258 36161 ft 497 kts 103°
2026-04-25 21:31 42.44432 -2.00587 36165 ft 497 kts 103°
2026-04-25 21:31 42.42888 -1.91468 36151 ft 497 kts 103°
2026-04-25 21:32 42.41542 -1.82303 36141 ft 496 kts 99°
2026-04-25 21:32 42.40491 -1.73135 36146 ft 496 kts 99°
2026-04-25 21:33 42.39414 -1.63910 36129 ft 496 kts 99°
2026-04-25 21:33 42.38279 -1.54714 36142 ft 495 kts 100°
2026-04-25 21:34 42.37114 -1.45536 36137 ft 494 kts 100°
2026-04-25 21:34 42.35942 -1.36385 36136 ft 493 kts 100°
2026-04-25 21:35 42.34767 -1.27252 36127 ft 493 kts 100°
2026-04-25 21:35 42.33586 -1.18121 36126 ft 493 kts 100°
2026-04-25 21:36 42.32405 -1.09053 36130 ft 493 kts 100°
2026-04-25 21:36 42.31211 -0.99936 36129 ft 493 kts 101°
2026-04-25 21:37 42.30211 -0.92348 36125 ft 492 kts 101°
2026-04-25 21:37 42.28800 -0.81707 36126 ft 492 kts 101°
2026-04-25 21:38 42.27585 -0.72609 36125 ft 493 kts 101°
2026-04-25 21:38 42.26360 -0.63488 36122 ft 493 kts 101°
2026-04-25 21:39 42.25128 -0.54377 36131 ft 493 kts 101°
2026-04-25 21:39 42.23889 -0.45273 36133 ft 493 kts 101°
2026-04-25 21:40 42.22651 -0.36227 36138 ft 493 kts 101°
2026-04-25 21:40 42.21401 -0.27127 36138 ft 493 kts 101°
2026-04-25 21:41 42.20750 -0.17912 36141 ft 494 kts 94°
2026-04-25 21:41 42.20346 -0.08673 36142 ft 494 kts 94°
2026-04-25 21:42 42.19974 0.00579 36141 ft 494 kts 94°
2026-04-25 21:42 42.19587 0.09839 36132 ft 493 kts 94°
2026-04-25 21:43 42.19186 0.19066 36138 ft 492 kts 94°
2026-04-25 21:43 42.18775 0.28281 36137 ft 492 kts 94°
2026-04-25 21:44 42.18356 0.37485 36145 ft 492 kts 94°
2026-04-25 21:45 42.17715 0.51302 36153 ft 492 kts 94°
2026-04-25 21:45 42.17277 0.60515 36151 ft 492 kts 94°
2026-04-25 21:46 42.16834 0.69715 36156 ft 492 kts 94°
2026-04-25 21:46 42.16382 0.78925 36160 ft 492 kts 94°
2026-04-25 21:47 42.16001 0.86586 36161 ft 493 kts 94°
2026-04-25 21:47 42.15534 0.95822 36162 ft 493 kts 94°
2026-04-25 21:48 42.15062 1.05033 36161 ft 493 kts 94°
2026-04-25 21:48 42.14582 1.14247 36162 ft 493 kts 94°
2026-04-25 21:49 42.14094 1.23469 36161 ft 494 kts 94°
2026-04-25 21:49 42.13598 1.32690 36161 ft 494 kts 94°
2026-04-25 21:50 42.13012 1.41907 36163 ft 494 kts 96°
2026-04-25 21:50 42.12322 1.51120 36163 ft 494 kts 96°
2026-04-25 21:51 42.11641 1.60250 36159 ft 492 kts 96°
2026-04-25 21:51 42.10968 1.69407 36156 ft 491 kts 96°
2026-04-25 21:52 42.10293 1.78618 36158 ft 491 kts 96°
2026-04-25 21:52 42.09619 1.87709 36145 ft 491 kts 96°
2026-04-25 21:53 42.08934 1.96856 36146 ft 491 kts 96°
2026-04-25 21:53 42.08240 2.05998 36136 ft 491 kts 96°
2026-04-25 21:54 42.07540 2.15132 36131 ft 491 kts 96°
2026-04-25 21:54 42.06832 2.24269 36132 ft 491 kts 96°
2026-04-25 21:55 42.06121 2.33353 36123 ft 490 kts 96°
2026-04-25 21:55 42.05400 2.42468 36123 ft 489 kts 96°
2026-04-25 21:56 42.04673 2.51571 36116 ft 489 kts 96°
2026-04-25 21:56 42.03938 2.60671 36122 ft 489 kts 96°
2026-04-25 21:57 42.03196 2.69779 36116 ft 489 kts 96°
2026-04-25 21:57 42.02447 2.78884 36122 ft 490 kts 96°
2026-04-25 21:58 42.01689 2.87997 36089 ft 490 kts 96°
2026-04-25 21:58 42.00925 2.97093 36087 ft 490 kts 96°
2026-04-25 21:59 42.00158 3.06143 36093 ft 490 kts 96°
2026-04-25 21:59 41.99378 3.15264 36087 ft 492 kts 96°
2026-04-25 22:00 41.98190 3.28983 36095 ft 493 kts 96°
2026-04-25 22:00 41.97388 3.38142 36106 ft 493 kts 96°
2026-04-25 22:01 41.96579 3.47288 36101 ft 493 kts 96°
2026-04-25 22:01 41.95897 3.54941 36107 ft 493 kts 96°
2026-04-25 22:02 41.94940 3.65574 36112 ft 493 kts 96°
2026-04-25 22:02 41.94109 3.74718 36112 ft 493 kts 96°
2026-04-25 22:03 41.93272 3.83848 36114 ft 493 kts 96°
2026-04-25 22:03 41.93152 3.92996 36116 ft 493 kts 81°
2026-04-25 22:04 41.93913 3.97523 36117 ft 490 kts 70°
2026-04-25 22:04 41.95106 4.01810 36120 ft 490 kts 66°
2026-04-25 22:04 41.97770 4.10170 36112 ft 490 kts 65°
2026-04-25 22:05 42.00545 4.18542 36118 ft 490 kts 64°
2026-04-25 22:05 42.03291 4.26926 36118 ft 490 kts 65°
2026-04-25 22:06 42.06011 4.35349 36117 ft 491 kts 65°
2026-04-25 22:06 42.09393 4.43259 36113 ft 486 kts 49°
2026-04-25 22:07 42.13065 4.48992 36114 ft 486 kts 46°
2026-04-25 22:07 42.17705 4.57666 36114 ft 490 kts 56°
2026-04-25 22:08 42.21265 4.65512 36110 ft 490 kts 57°
2026-04-25 22:08 42.24756 4.73403 36114 ft 489 kts 57°
2026-04-25 22:09 42.28248 4.81280 36107 ft 489 kts 57°
2026-04-25 22:09 42.31751 4.89159 36111 ft 489 kts 57°
2026-04-25 22:10 42.35258 4.97052 36106 ft 490 kts 57°
2026-04-25 22:10 42.38757 5.04948 36107 ft 489 kts 57°
2026-04-25 22:11 42.42244 5.12842 36107 ft 489 kts 57°
2026-04-25 22:11 42.45726 5.20745 36111 ft 489 kts 57°
2026-04-25 22:12 42.49203 5.28659 36107 ft 489 kts 57°
2026-04-25 22:12 42.52088 5.35239 36106 ft 489 kts 58°
2026-04-25 22:13 42.56142 5.44513 36106 ft 488 kts 58°
2026-04-25 22:13 42.59596 5.52439 36106 ft 488 kts 58°
2026-04-25 22:14 42.63049 5.60382 36105 ft 488 kts 58°
2026-04-25 22:14 42.66478 5.68292 36106 ft 488 kts 58°
2026-04-25 22:15 42.69920 5.76253 36107 ft 488 kts 58°
2026-04-25 22:16 42.75072 5.88208 36111 ft 488 kts 58°
2026-04-25 22:16 42.78500 5.96189 36107 ft 488 kts 58°
2026-04-25 22:17 42.81922 6.04180 36105 ft 488 kts 58°
2026-04-25 22:17 42.85338 6.12178 36096 ft 488 kts 58°
2026-04-25 22:18 42.88750 6.20189 36100 ft 489 kts 58°
2026-04-25 22:18 42.92160 6.28217 36101 ft 490 kts 58°
2026-04-25 22:19 42.95572 6.36272 36099 ft 489 kts 58°
2026-04-25 22:19 42.98976 6.44330 36102 ft 490 kts 58°
2026-04-25 22:20 43.02346 6.52330 36100 ft 489 kts 58°
2026-04-25 22:20 43.05738 6.60405 36100 ft 489 kts 58°
2026-04-25 22:21 43.09126 6.68492 36096 ft 490 kts 58°
2026-04-25 22:21 43.12510 6.76593 36102 ft 490 kts 59°
2026-04-25 22:22 43.15889 6.84704 36104 ft 490 kts 58°
2026-04-25 22:22 43.19261 6.92820 36102 ft 490 kts 58°
2026-04-25 22:23 43.22625 7.00941 36102 ft 490 kts 59°
2026-04-25 22:23 43.25962 7.09019 36100 ft 490 kts 59°
2026-04-25 22:24 43.29319 7.17168 36100 ft 490 kts 59°
2026-04-25 22:24 43.32670 7.25325 36100 ft 490 kts 59°
2026-04-25 22:25 43.36014 7.33490 36102 ft 490 kts 59°
2026-04-25 22:25 43.39352 7.41660 36109 ft 490 kts 59°
2026-04-25 22:26 43.42691 7.49859 36100 ft 492 kts 59°
2026-04-25 22:26 43.46027 7.58074 36101 ft 492 kts 59°
2026-04-25 22:27 43.49361 7.66306 36101 ft 491 kts 59°
2026-04-25 22:27 43.52678 7.74522 36108 ft 491 kts 59°
2026-04-25 22:28 43.55993 7.82755 36111 ft 491 kts 59°
2026-04-25 22:28 43.59303 7.91000 36110 ft 492 kts 59°
2026-04-25 22:29 43.62639 7.99251 36111 ft 492 kts 57°
2026-04-25 22:29 43.66730 8.06674 36113 ft 489 kts 48°
2026-04-25 22:30 43.73412 8.17330 36113 ft 489 kts 47°
2026-04-25 22:30 43.77149 8.23208 36116 ft 489 kts 47°
2026-04-25 22:31 43.82389 8.31489 36116 ft 489 kts 47°
2026-04-25 22:31 43.86862 8.38597 36116 ft 489 kts 47°
2026-04-25 22:32 43.91327 8.45713 36121 ft 489 kts 47°
2026-04-25 22:32 43.95792 8.52847 36118 ft 489 kts 47°
2026-04-25 22:33 44.00217 8.59935 36117 ft 489 kts 47°
2026-04-25 22:33 44.04673 8.67089 36118 ft 489 kts 47°
2026-04-25 22:34 44.09124 8.74253 36125 ft 489 kts 47°
2026-04-25 22:34 44.13566 8.81422 36121 ft 489 kts 47°
2026-04-25 22:35 44.17261 8.87397 36118 ft 489 kts 47°
2026-04-25 22:35 44.21693 8.94582 36124 ft 489 kts 47°
2026-04-25 22:36 44.26123 9.01781 36132 ft 489 kts 47°
2026-04-25 22:36 44.30546 9.08989 36112 ft 489 kts 47°
2026-04-25 22:37 44.34963 9.16202 36115 ft 489 kts 47°
2026-04-25 22:37 44.39379 9.23434 36119 ft 489 kts 47°
2026-04-25 22:38 44.43792 9.30679 36125 ft 489 kts 47°
2026-04-25 22:38 44.48203 9.37939 36121 ft 489 kts 47°
2026-04-25 22:39 44.52602 9.45199 36121 ft 489 kts 47°
2026-04-25 22:39 44.57006 9.52485 36121 ft 489 kts 47°
2026-04-25 22:40 44.61405 9.59783 36116 ft 490 kts 47°
2026-04-25 22:40 44.65797 9.67085 36114 ft 489 kts 47°
2026-04-25 22:41 44.70182 9.74395 36097 ft 489 kts 47°
2026-04-25 22:41 44.74562 9.81715 36086 ft 489 kts 47°
2026-04-25 22:42 44.78936 9.89046 36085 ft 489 kts 47°
2026-04-25 22:42 44.83297 9.96376 36065 ft 488 kts 47°
2026-04-25 22:43 44.87623 10.03663 36034 ft 488 kts 47°
2026-04-25 22:43 44.91972 10.11007 36028 ft 488 kts 47°
2026-04-25 22:44 44.96345 10.18411 36028 ft 487 kts 47°
2026-04-25 22:44 45.00657 10.25732 36043 ft 487 kts 47°
2026-04-25 22:45 45.04989 10.33105 36045 ft 487 kts 47°
2026-04-25 22:45 45.09315 10.40487 36054 ft 487 kts 47°
2026-04-25 22:46 45.13638 10.47885 36040 ft 489 kts 47°
2026-04-25 22:46 45.17971 10.55317 36037 ft 489 kts 47°
2026-04-25 22:47 45.22301 10.62765 36035 ft 489 kts 47°
2026-04-25 22:47 45.26632 10.70234 36037 ft 489 kts 47°
2026-04-25 22:48 45.30946 10.77696 36046 ft 489 kts 47°
2026-04-25 22:48 45.35254 10.85165 36049 ft 489 kts 47°
2026-04-25 22:49 45.39533 10.92603 36050 ft 489 kts 47°
2026-04-25 22:49 45.43846 11.00118 36047 ft 490 kts 47°
2026-04-25 22:50 45.48154 11.07647 36047 ft 490 kts 48°
2026-04-25 22:50 45.52464 11.15200 36044 ft 490 kts 48°
2026-04-25 22:51 45.56762 11.22752 36050 ft 490 kts 48°
2026-04-25 22:51 45.61058 11.30322 36065 ft 490 kts 48°
2026-04-25 22:52 45.65343 11.37891 36051 ft 490 kts 48°
2026-04-25 22:52 45.68902 11.44195 36053 ft 490 kts 48°
2026-04-25 22:53 45.73899 11.53067 36050 ft 490 kts 48°
2026-04-25 22:53 45.78168 11.60670 36059 ft 490 kts 48°
2026-04-25 22:54 45.82433 11.68285 36058 ft 489 kts 48°
2026-04-25 22:54 45.86686 11.75900 36060 ft 489 kts 48°
2026-04-25 22:55 45.90937 11.83534 36056 ft 489 kts 48°
2026-04-25 22:55 45.95184 11.91181 36078 ft 489 kts 48°
2026-04-25 22:56 45.99426 11.98831 36060 ft 490 kts 48°
2026-04-25 22:56 46.03679 12.06533 36060 ft 491 kts 48°
2026-04-25 22:57 46.07917 12.14231 36060 ft 491 kts 49°
2026-04-25 22:57 46.12158 12.21953 36064 ft 491 kts 49°
2026-04-25 22:58 46.16394 12.29685 36065 ft 491 kts 49°
2026-04-25 22:58 46.20619 12.37419 36059 ft 491 kts 49°
2026-04-25 22:59 46.24851 12.45184 36069 ft 491 kts 49°
2026-04-25 22:59 46.29045 12.52905 36066 ft 491 kts 49°
2026-04-25 23:00 46.33259 12.60685 36060 ft 491 kts 49°
2026-04-25 23:00 46.37471 12.68480 36084 ft 491 kts 49°
2026-04-25 23:01 46.41680 12.76292 36063 ft 491 kts 49°
2026-04-25 23:01 46.45882 12.84113 36074 ft 491 kts 49°
2026-04-25 23:02 46.50076 12.91944 36071 ft 491 kts 49°
2026-04-25 23:02 46.54263 12.99781 36071 ft 491 kts 49°
2026-04-25 23:03 46.58442 13.07623 36076 ft 491 kts 49°
2026-04-25 23:03 46.62619 13.15486 36091 ft 491 kts 49°
2026-04-25 23:04 46.65975 13.22161 36078 ft 493 kts 55°
2026-04-25 23:04 46.69332 13.32820 36080 ft 498 kts 65°
2026-04-25 23:05 46.71837 13.42219 36076 ft 498 kts 66°
2026-04-25 23:05 46.74307 13.51593 36075 ft 498 kts 66°
2026-04-25 23:06 46.76781 13.61031 36082 ft 498 kts 66°
2026-04-25 23:06 46.79247 13.70482 36075 ft 498 kts 66°
2026-04-25 23:07 46.81703 13.79935 36076 ft 497 kts 66°
2026-04-25 23:07 46.84148 13.89385 36079 ft 498 kts 66°
2026-04-25 23:08 46.86586 13.98847 36081 ft 498 kts 66°
2026-04-25 23:08 46.89017 14.08319 36074 ft 498 kts 66°
2026-04-25 23:09 46.91441 14.17805 36074 ft 497 kts 66°
2026-04-25 23:09 46.93854 14.27288 36074 ft 497 kts 66°
2026-04-25 23:10 46.96252 14.36754 36023 ft 496 kts 66°
2026-04-25 23:10 46.97446 14.41480 35695 ft 494 kts 66°
2026-04-25 23:10 46.98633 14.46189 35142 ft 492 kts 66°
2026-04-25 23:11 46.99817 14.50895 34613 ft 490 kts 66°
2026-04-25 23:11 47.00989 14.55564 34104 ft 488 kts 66°
2026-04-25 23:11 47.02156 14.60220 33534 ft 485 kts 66°
2026-04-25 23:11 47.03317 14.64862 32966 ft 485 kts 66°
2026-04-25 23:12 47.04477 14.69507 32427 ft 485 kts 66°
2026-04-25 23:12 47.05621 14.74098 31901 ft 486 kts 66°
2026-04-25 23:12 47.06779 14.78756 31377 ft 487 kts 66°
2026-04-25 23:12 47.07940 14.83434 30833 ft 487 kts 66°
2026-04-25 23:13 47.09094 14.88103 30328 ft 487 kts 66°
2026-04-25 23:13 47.10250 14.92783 29753 ft 487 kts 67°
2026-04-25 23:13 47.11401 14.97451 29167 ft 485 kts 67°
2026-04-25 23:13 47.12543 15.02095 28597 ft 482 kts 67°
2026-04-25 23:14 47.13678 15.06720 28035 ft 480 kts 67°
2026-04-25 23:14 47.14803 15.11311 27475 ft 477 kts 67°
2026-04-25 23:14 47.15920 15.15883 26933 ft 474 kts 68°
2026-04-25 23:14 47.17029 15.20430 26381 ft 471 kts 68°
2026-04-25 23:15 47.18131 15.24954 25867 ft 469 kts 68°
2026-04-25 23:15 47.19224 15.29452 25347 ft 466 kts 68°
2026-04-25 23:15 47.20311 15.33938 24849 ft 464 kts 68°
2026-04-25 23:15 47.21392 15.38406 24338 ft 462 kts 68°
2026-04-25 23:16 47.22466 15.42854 23857 ft 460 kts 68°
2026-04-25 23:16 47.23532 15.47277 23334 ft 458 kts 68°
2026-04-25 23:16 47.24597 15.51706 22765 ft 458 kts 68°
2026-04-25 23:16 47.25653 15.56105 22203 ft 456 kts 68°
2026-04-25 23:17 47.26690 15.60436 21657 ft 452 kts 68°
2026-04-25 23:17 47.27728 15.64783 21107 ft 445 kts 68°
2026-04-25 23:17 47.28729 15.68994 20574 ft 424 kts 68°
2026-04-25 23:17 47.29670 15.72963 20047 ft 398 kts 68°
2026-04-25 23:18 47.30567 15.76743 19536 ft 387 kts 67°
2026-04-25 23:18 47.31457 15.80478 19034 ft 387 kts 67°
2026-04-25 23:18 47.32348 15.84224 18545 ft 388 kts 67°
2026-04-25 23:18 47.33238 15.87977 18015 ft 387 kts 68°
2026-04-25 23:19 47.34113 15.91682 17450 ft 376 kts 68°
2026-04-25 23:19 47.34958 15.95274 16892 ft 367 kts 68°
2026-04-25 23:19 47.35528 15.97613 16542 ft 363 kts 65°
2026-04-25 23:19 47.36693 16.00878 16018 ft 357 kts 50°
2026-04-25 23:20 47.38368 16.03500 15491 ft 348 kts 33°
2026-04-25 23:20 47.40456 16.05206 14987 ft 343 kts 17°
2026-04-25 23:20 47.42698 16.06420 14477 ft 344 kts 14°
2026-04-25 23:20 47.45685 16.07927 14071 ft 338 kts 14°
2026-04-25 23:21 47.47176 16.08675 14033 ft 331 kts 14°
2026-04-25 23:21 47.49319 16.09748 14013 ft 318 kts 14°
2026-04-25 23:21 47.51373 16.10776 14029 ft 308 kts 13°
2026-04-25 23:21 47.53394 16.11779 14019 ft 306 kts 13°
2026-04-25 23:22 47.55410 16.12779 14016 ft 306 kts 13°
2026-04-25 23:22 47.57437 16.13785 13860 ft 308 kts 14°
2026-04-25 23:22 47.59467 16.14795 13484 ft 309 kts 14°
2026-04-25 23:23 47.63566 16.16840 12695 ft 312 kts 14°
2026-04-25 23:23 47.65622 16.17866 12318 ft 312 kts 14°
2026-04-25 23:23 47.67673 16.18893 12043 ft 308 kts 14°
2026-04-25 23:23 47.69669 16.19896 12000 ft 297 kts 14°
2026-04-25 23:24 47.71589 16.20862 11973 ft 286 kts 13°
2026-04-25 23:24 47.73468 16.21803 11686 ft 285 kts 13°
2026-04-25 23:24 47.75327 16.22734 11305 ft 278 kts 13°
2026-04-25 23:24 47.77103 16.23629 10929 ft 269 kts 14°
2026-04-25 23:25 47.78661 16.25098 10557 ft 270 kts 45°
2026-04-25 23:25 47.79447 16.27637 10087 ft 277 kts 80°
2026-04-25 23:25 47.79430 16.30500 9592 ft 277 kts 90°
2026-04-25 23:25 47.79435 16.33378 9078 ft 281 kts 83°
2026-04-25 23:26 47.79657 16.36275 8695 ft 283 kts 77°
2026-04-25 23:26 47.80028 16.39155 8345 ft 284 kts 73°
2026-04-25 23:26 47.80482 16.42015 7977 ft 284 kts 71°
2026-04-25 23:26 47.80974 16.44827 7619 ft 278 kts 70°
2026-04-25 23:27 47.81477 16.47565 7271 ft 271 kts 70°
2026-04-25 23:27 47.81981 16.50237 6927 ft 265 kts 69°
2026-04-25 23:27 47.82483 16.52852 6580 ft 260 kts 69°
2026-04-25 23:27 47.82979 16.55419 6227 ft 256 kts 68°
2026-04-25 23:28 47.83470 16.57950 6020 ft 254 kts 68°
2026-04-25 23:28 47.83963 16.60482 5995 ft 255 kts 68°
2026-04-25 23:28 47.84457 16.63014 5996 ft 255 kts 68°
2026-04-25 23:28 47.84950 16.65546 5999 ft 254 kts 68°
2026-04-25 23:29 47.85441 16.68077 5997 ft 255 kts 68°
2026-04-25 23:29 47.85933 16.70613 6001 ft 254 kts 69°
2026-04-25 23:29 47.86438 16.73140 5999 ft 254 kts 66°
2026-04-25 23:29 47.87255 16.75413 5998 ft 245 kts 44°
2026-04-25 23:30 47.88538 16.76983 6001 ft 236 kts 24°
2026-04-25 23:30 47.89956 16.78122 6000 ft 234 kts 19°
2026-04-25 23:30 47.91482 16.78832 5999 ft 227 kts
2026-04-25 23:30 47.93019 16.78700 6000 ft 219 kts 343°
2026-04-25 23:31 47.94488 16.78085 6000 ft 219 kts 339°
2026-04-25 23:31 47.95952 16.77430 5997 ft 221 kts 344°
2026-04-25 23:31 47.97502 16.77543 5993 ft 230 kts 14°
2026-04-25 23:31 47.98838 16.78923 6000 ft 243 kts 45°
2026-04-25 23:32 47.99566 16.81245 6004 ft 256 kts 76°
2026-04-25 23:32 47.99460 16.83910 5999 ft 264 kts 106°
2026-04-25 23:32 47.98620 16.86352 6000 ft 266 kts 122°
2026-04-25 23:32 47.97569 16.88635 5982 ft 268 kts 125°
2026-04-25 23:33 47.96710 16.91080 5843 ft 265 kts 102°
2026-04-25 23:33 47.96654 16.93762 5642 ft 256 kts 71°
2026-04-25 23:33 47.97425 16.96035 5383 ft 240 kts 40°
2026-04-25 23:33 47.98642 16.97694 5088 ft 237 kts 29°
2026-04-25 23:34 48.00088 16.98778 4714 ft 230 kts
2026-04-25 23:34 48.01640 16.98785 4331 ft 221 kts 340°
2026-04-25 23:34 48.02931 16.97619 3954 ft 219 kts 311°
2026-04-25 23:34 48.03591 16.95578 3594 ft 224 kts 285°
2026-04-25 23:35 48.03708 16.93234 3235 ft 228 kts 275°
2026-04-25 23:35 48.03746 16.90877 3009 ft 224 kts 276°
2026-04-25 23:35 48.03815 16.88620 2975 ft 210 kts 277°
2026-04-25 23:35 48.03909 16.86461 2993 ft 207 kts 279°
2026-04-25 23:36 48.04043 16.84342 2993 ft 201 kts 281°
2026-04-25 23:36 48.04214 16.82337 2987 ft 188 kts 283°
2026-04-25 23:36 48.04403 16.80495 3010 ft 170 kts 284°
2026-04-25 23:36 48.04600 16.78820 3004 ft 161 kts 285°
2026-04-25 23:37 48.04839 16.77187 2997 ft 159 kts 288°
2026-04-25 23:37 48.05127 16.75681 2991 ft 145 kts 293°
2026-04-25 23:37 48.05501 16.74328 2994 ft 140 kts 297°
2026-04-25 23:37 48.05911 16.72999 2848 ft 141 kts 297°
2026-04-25 23:38 48.06324 16.71674 2673 ft 140 kts 298°
2026-04-25 23:38 48.06749 16.70378 2477 ft 137 kts 298°
2026-04-25 23:38 48.07150 16.69136 2289 ft 129 kts 297°
2026-04-25 23:38 48.07541 16.67929 2125 ft 128 kts 298°
2026-04-25 23:39 48.07920 16.66759 1954 ft 122 kts 298°
2026-04-25 23:39 48.08289 16.65624 1796 ft 121 kts 298°
2026-04-25 23:39 48.08660 16.64488 1629 ft 120 kts 296°
2026-04-25 23:39 48.09027 16.63352 1473 ft 123 kts 297°
2026-04-25 23:40 48.09403 16.62194 1311 ft 124 kts 298°
2026-04-25 23:40 48.09787 16.61019 1139 ft 129 kts 296°
2026-04-25 23:40 48.10173 16.59803 942 ft 131 kts 295°
2026-04-25 23:40 48.10568 16.58599 749 ft 131 kts 296°
2026-04-25 23:41 48.10971 16.57365 633 ft 132 kts 297°
2026-04-25 23:41 48.11279 16.56416 624 ft 68 kts 296°
2026-04-25 23:41 48.11455 16.55876 622 ft 44 kts 296°
2026-04-25 23:41 48.11583 16.55495 623 ft 39 kts 301°
2026-04-25 23:42 48.11747 16.55220 628 ft 25 kts 319°
2026-04-25 23:42 48.11820 16.55152 625 ft 6 kts 342°
2026-04-25 23:42 48.11832 16.55148 613 ft 2 kts 349°
2026-04-25 23:42 48.11835 16.55148 626 ft 0 kts 351°
2026-04-25 23:43 48.11845 16.55148 625 ft 4 kts
2026-04-25 23:43 48.11864 16.55180 624 ft 5 kts 75°
2026-04-25 23:43 48.11858 16.55253 625 ft 9 kts 104°
2026-04-25 23:43 48.11830 16.55372 625 ft 15 kts 112°
2026-04-25 23:44 48.11781 16.55533 622 ft 19 kts 118°
2026-04-25 23:44 48.11729 16.55714 626 ft 17 kts 89°
2026-04-25 23:44 48.11813 16.55841 622 ft 17 kts 29°
2026-04-25 23:45 48.11726 16.56257 628 ft 15 kts 57°
2026-04-25 23:45 48.11763 16.56378 628 ft 1 kts 81°
2026-04-25 23:46 48.11739 16.56473 625 ft 18 kts 119°
2026-04-25 23:46 48.11660 16.56672 626 ft 21 kts 117°
2026-04-25 23:46 48.11616 16.56847 624 ft 15 kts 83°
2026-04-25 23:46 48.11661 16.56914 626 ft 3 kts 31°
2026-04-25 23:47 48.11675 16.56925 628 ft 0 kts 28°